Laatste waarneming: 20:40
Temperatuur:6,3°C
Dauwpunt:4,3°C
Rel. vocht:87,0%
Natte-bol:5,5°C
Wind (gem. 10 min.):6,7 m/s
Wind (max. 10 min.): m/s
Windrichting:304°
Neerslagsom:0,4 mm
Neerslagintensiteit:0,0 mm/u
Luchtdruk:1025,0 hPa
Straling:0,0 W/m2
 
Maximumtemp.:7,3°C (13:01)
Minimumtemp.:5,6°C (00:00)
Hoogste windstoot:15,2 m/s (09:39)


Bekijk het Grafiekoverzicht.
Bekijk het Maandoverzicht.
Dagtabel
Tijd Temp. Dauwp. Natte-bol Rel. Hum. Windsnelh. Windricht. Windstoot Neerslag Straling Luchtdruk
 
20:40 6,3 4,3 5,5 87,0 6,7 304 - 0,4 0 1.025,0
20:39 6,3 4,3 5,5 87,0 6,8 303 - 0,4 0 1.025,1
20:38 6,4 4,4 5,6 87,0 6,8 303 - 0,4 0 1.025,0
20:37 6,4 4,4 5,6 87,0 6,9 303 - 0,4 0 1.025,1
20:36 6,4 4,4 5,6 87,0 6,9 303 - 0,4 0 1.025,0
20:35 6,4 4,4 5,6 87,0 7,0 303 - 0,4 0 1.025,0
20:34 6,4 4,4 5,6 87,0 7,1 302 - 0,4 0 1.025,0
20:33 6,4 4,4 5,6 87,0 7,3 302 - 0,4 0 1.024,9
20:32 6,4 4,4 5,6 87,0 7,3 302 - 0,4 0 1.024,9
20:31 6,4 4,4 5,6 87,0 7,4 302 - 0,4 0 1.024,9
20:30 6,4 4,4 5,6 87,0 7,5 302 - 0,4 0 1.024,9
20:29 6,4 4,4 5,6 87,0 7,6 302 - 0,4 0 1.024,9
20:28 6,3 4,5 5,6 88,0 7,6 301 - 0,4 0 1.024,8
20:27 6,3 4,5 5,6 88,0 7,4 301 - 0,4 0 1.024,8
20:26 6,3 4,5 5,6 88,0 7,3 301 - 0,4 0 1.024,8
20:25 6,3 4,5 5,6 88,0 7,2 301 - 0,4 0 1.024,8
20:24 6,3 4,5 5,6 88,0 7,0 301 - 0,4 0 1.024,8
20:23 6,3 4,5 5,6 88,0 6,9 301 - 0,4 0 1.024,8
20:22 6,3 4,5 5,6 88,0 6,8 301 - 0,4 0 1.024,7
20:21 6,3 4,5 5,6 88,0 6,8 301 - 0,4 0 1.024,7
20:20 6,3 4,5 5,6 88,0 6,9 301 - 0,4 0 1.024,7
20:19 6,3 4,5 5,6 88,0 6,8 301 - 0,4 0 1.024,6
20:18 6,3 4,5 5,6 88,0 6,8 301 - 0,4 0 1.024,6
20:17 6,4 4,6 5,7 88,0 6,8 301 - 0,4 0 1.024,6
20:16 6,4 4,6 5,7 88,0 6,8 302 - 0,4 0 1.024,6
20:15 6,4 4,6 5,7 88,0 6,9 302 - 0,4 0 1.024,6
20:14 6,4 4,6 5,7 88,0 7,0 302 - 0,4 0 1.024,6
20:13 6,4 4,6 5,7 88,0 7,1 302 - 0,4 0 1.024,5
20:12 6,5 4,8 5,9 88,8 7,2 303 - 0,4 0 1.024,5
20:11 6,5 4,8 5,9 89,0 7,3 303 - 0,4 0 1.024,5
20:10 6,5 4,8 5,9 89,0 7,4 304 - 0,4 0 1.024,5
20:09 6,5 4,8 5,9 89,0 7,4 304 - 0,4 0 1.024,5
20:08 6,5 4,8 5,9 89,0 7,4 305 - 0,4 0 1.024,4
20:07 6,5 4,8 5,9 89,0 7,5 305 - 0,4 0 1.024,5
20:06 6,5 4,8 5,9 89,0 7,5 306 - 0,4 0 1.024,5
20:05 6,5 4,8 5,9 89,0 7,5 306 - 0,4 0 1.024,5
20:04 6,6 4,9 6,0 89,0 7,5 306 - 0,4 0 1.024,4
20:03 6,6 4,9 6,0 89,0 7,6 306 - 0,4 0 1.024,5
20:02 6,6 4,9 6,0 89,0 7,7 306 - 0,4 0 1.024,4
20:01 6,7 5,0 6,1 89,0 7,9 306 - 0,4 0 1.024,4
20:00 6,7 5,0 6,1 89,0 8,1 306 - 0,4 0 1.024,4
 
19:59 6,7 5,2 6,2 90,0 8,3 305 - 0,4 0 1.024,4
19:58 6,7 5,2 6,2 90,0 8,6 305 - 0,4 0 1.024,4
19:57 6,7 5,2 6,2 90,0 8,8 305 - 0,4 0 1.024,3
19:56 6,7 5,2 6,2 90,0 9,0 305 - 0,4 0 1.024,3
19:55 6,7 5,2 6,2 90,0 9,3 304 - 0,4 0 1.024,2
19:54 6,7 5,2 6,2 90,2 9,5 304 - 0,4 0 1.024,1
19:53 6,7 5,3 6,2 90,8 9,5 304 - 0,4 0 1.024,1
19:52 6,6 5,1 6,1 90,0 9,6 303 - 0,4 0 1.024,0
19:51 6,6 5,1 6,1 90,0 9,6 303 - 0,4 0 1.023,9
19:50 6,6 5,1 6,1 90,0 9,6 302 - 0,4 0 1.024,0
19:49 6,7 5,3 6,2 90,7 9,6 301 - 0,4 0 1.024,0
19:48 6,7 5,3 6,2 91,0 9,7 300 - 0,4 0 1.023,9
19:47 6,7 5,3 6,2 91,0 9,8 299 - 0,4 0 1.023,9
19:46 6,7 5,3 6,2 91,0 10,0 298 - 0,4 0 1.023,9
19:45 6,6 5,2 6,1 91,0 10,1 297 - 0,4 0 1.023,8
19:44 6,6 5,2 6,1 91,0 10,2 296 - 0,4 0 1.023,9
19:43 6,6 5,2 6,1 91,0 10,1 296 - 0,4 0 1.023,9
19:42 6,6 5,2 6,1 91,0 9,8 295 - 0,4 0 1.023,8
19:41 6,6 5,3 6,2 91,3 9,3 295 - 0,4 0 1.023,8
19:40 6,6 5,4 6,2 92,0 8,9 294 - 0,4 0 1.023,8
19:39 6,5 5,3 6,1 92,0 8,7 294 - 0,4 0 1.023,8
19:38 6,5 5,3 6,1 92,0 8,6 294 - 0,4 0 1.023,8
19:37 6,5 5,3 6,1 92,0 8,6 293 - 0,4 0 1.023,8
19:36 6,5 5,3 6,1 92,0 8,7 293 - 0,4 0 1.023,8
19:35 6,5 5,3 6,1 92,0 8,9 292 - 0,4 0 1.023,8
19:34 6,5 5,3 6,1 92,0 9,2 292 - 0,4 0 1.023,8
19:33 6,5 5,3 6,1 92,0 9,3 291 - 0,4 0 1.023,7
19:32 6,5 5,3 6,1 92,0 9,3 291 - 0,4 0 1.023,7
19:31 6,6 5,4 6,2 92,0 9,3 290 - 0,4 0 1.023,7
19:30 6,6 5,4 6,2 92,0 9,4 290 - 0,4 0 1.023,7
19:29 6,5 5,3 6,1 92,0 9,5 290 - 0,4 0 1.023,7
19:28 6,6 5,4 6,2 92,0 9,5 290 - 0,4 0 1.023,7
19:27 6,6 5,4 6,2 92,0 9,5 291 - 0,4 0 1.023,7
19:26 6,5 5,3 6,1 92,0 9,3 291 - 0,4 0 1.023,6
19:25 6,5 5,3 6,1 92,0 9,1 291 - 0,4 0 1.023,6
19:24 6,5 5,3 6,1 92,0 9,0 291 - 0,4 0 1.023,6
19:23 6,6 5,4 6,2 92,0 9,0 291 - 0,4 0 1.023,6
19:22 6,6 5,4 6,2 92,0 9,0 291 - 0,4 0 1.023,6
19:21 6,6 5,4 6,2 92,0 9,0 291 - 0,4 0 1.023,6
19:20 6,5 5,3 6,1 92,0 9,2 291 - 0,4 0 1.023,5
19:19 6,5 5,3 6,1 92,0 9,5 291 - 0,4 0 1.023,4
19:18 6,5 5,3 6,1 92,0 9,7 291 - 0,4 0 1.023,4
19:17 6,5 5,3 6,1 92,0 9,8 291 - 0,4 0 1.023,5
19:16 6,5 5,3 6,1 92,0 9,8 291 - 0,4 0 1.023,5
19:15 6,5 5,3 6,1 92,0 9,8 291 - 0,4 0 1.023,4
19:14 6,4 5,2 6,0 92,0 9,7 291 - 0,4 0 1.023,5
19:13 6,4 5,2 6,0 92,0 9,5 292 - 0,4 0 1.023,5
19:12 6,4 5,2 6,0 92,0 9,3 292 - 0,4 0 1.023,5
19:11 6,4 5,2 6,0 92,0 9,2 292 - 0,4 0 1.023,5
19:10 6,4 5,2 6,0 92,0 9,1 292 - 0,4 0 1.023,5
19:09 6,4 5,2 6,0 92,0 8,9 292 - 0,4 0 1.023,5
19:08 6,3 5,1 5,9 92,0 8,9 292 - 0,4 0 1.023,4
19:07 6,3 5,1 5,9 92,0 8,9 291 - 0,4 0 1.023,4
19:06 6,4 5,2 6,0 92,0 9,0 291 - 0,4 0 1.023,4
19:05 6,4 5,2 6,0 92,0 9,2 291 - 0,4 0 1.023,3
19:04 6,4 5,2 6,0 92,0 9,3 290 - 0,4 0 1.023,3
19:03 6,4 5,2 6,0 92,0 9,5 290 - 0,4 0 1.023,3
19:02 6,3 5,1 5,9 92,0 9,7 289 - 0,4 0 1.023,3
19:01 6,4 5,2 6,0 92,0 9,7 289 - 0,4 0 1.023,3
19:00 6,4 5,2 6,0 92,0 9,7 288 - 0,4 0 1.023,2
 
18:59 6,3 5,1 5,9 92,0 9,6 288 - 0,4 0 1.023,3
18:58 6,3 5,1 5,9 92,0 9,5 287 - 0,4 0 1.023,3
18:57 6,4 5,2 6,0 92,0 9,5 287 - 0,4 0 1.023,3
18:56 6,4 5,2 6,0 92,0 9,5 287 - 0,4 0 1.023,3
18:55 6,4 5,2 6,0 92,0 9,5 286 - 0,4 0 1.023,3
18:54 6,4 5,2 6,0 92,0 9,5 286 - 0,4 0 1.023,3
18:53 6,4 5,2 6,0 92,0 9,6 286 - 0,4 0 1.023,3
18:52 6,4 5,2 6,0 92,0 9,6 286 - 0,4 0 1.023,2
18:51 6,4 5,2 6,0 92,0 9,5 285 - 0,4 0 1.023,3
18:50 6,5 5,3 6,1 92,0 9,5 285 - 0,4 0 1.023,3
18:49 6,5 5,3 6,1 92,0 9,5 285 - 0,4 0 1.023,2
18:48 6,5 5,3 6,1 91,8 9,6 285 - 0,4 0 1.023,2
18:47 6,5 5,2 6,1 91,5 9,6 285 - 0,4 0 1.023,2
18:46 6,5 5,3 6,1 92,0 9,7 285 - 0,4 0 1.023,2
18:45 6,5 5,3 6,1 92,0 9,9 284 - 0,4 0 1.023,1
18:44 6,6 5,3 6,2 91,3 10,0 284 - 0,4 0 1.023,1
18:43 6,6 5,2 6,1 91,0 10,1 284 - 0,4 0 1.023,1
18:42 6,6 5,2 6,1 91,0 10,3 284 - 0,4 0 1.023,1
18:41 6,6 5,2 6,1 91,0 10,4 284 - 0,4 0 1.023,0
18:40 6,7 5,3 6,2 91,0 10,6 284 - 0,4 0 1.023,0
18:39 6,7 5,3 6,2 91,0 10,7 284 - 0,4 0 1.022,9
18:38 6,7 5,3 6,2 91,0 10,7 284 - 0,4 0 1.022,9
18:37 6,7 5,3 6,2 91,0 10,6 285 - 0,4 0 1.022,9
18:36 6,7 5,3 6,2 91,0 10,5 285 - 0,4 0 1.022,9
18:35 6,7 5,3 6,2 91,0 10,4 285 - 0,4 0 1.023,0
18:34 6,7 5,4 6,3 91,5 10,4 286 - 0,4 0 1.023,0
18:33 6,7 5,5 6,3 92,0 10,3 286 - 0,4 0 1.023,1
18:32 6,6 5,4 6,2 92,0 10,3 287 13,4 0,4 0 1.023,1
18:31 6,6 5,4 6,2 92,0 10,3 287 - 0,4 0 1.023,0
18:30 6,6 5,4 6,2 92,0 10,3 288 - 0,4 0 1.023,0
18:29 6,6 5,4 6,2 92,0 10,3 288 - 0,4 0 1.022,9
18:28 6,6 5,4 6,2 92,0 10,2 289 - 0,4 0 1.022,9
18:27 6,5 5,3 6,1 92,0 10,2 289 - 0,4 0 1.022,9
18:26 6,5 5,3 6,1 92,0 10,1 290 - 0,4 0 1.022,9
18:25 6,4 5,2 6,0 92,0 10,0 290 - 0,4 0 1.022,9
18:24 6,4 5,2 6,0 92,0 9,9 291 - 0,4 0 1.022,9
18:23 6,4 5,2 6,0 92,0 9,8 291 - 0,4 0 1.022,9
18:22 6,5 5,3 6,1 92,0 9,7 291 - 0,4 0 1.022,9
18:21 6,4 5,2 6,0 92,0 9,6 291 - 0,4 0 1.022,8
18:20 6,4 5,2 6,0 92,0 9,6 291 - 0,4 0 1.022,8
18:19 6,4 5,2 6,0 92,0 9,7 291 - 0,4 0 1.022,9
18:18 6,4 5,2 6,0 92,0 9,7 291 - 0,4 0 1.022,8
18:17 6,4 5,2 6,0 92,0 9,6 291 - 0,4 0 1.022,7
18:16 6,4 5,2 6,0 92,0 9,5 291 - 0,4 0 1.022,8
18:15 6,4 5,2 6,0 92,0 9,5 290 - 0,4 0 1.022,8
18:14 6,4 5,2 6,0 92,0 9,4 290 - 0,4 0 1.022,8
18:13 6,4 5,2 6,0 92,0 9,4 290 - 0,4 0 1.022,8
18:12 6,4 5,2 6,0 92,0 9,3 290 - 0,4 0 1.022,8
18:11 6,4 5,2 6,0 92,0 9,4 290 - 0,4 0 1.022,8
18:10 6,4 5,2 6,0 92,0 9,4 290 - 0,4 0 1.022,7
18:09 6,4 5,2 6,0 92,0 9,5 290 - 0,4 0 1.022,7
18:08 6,4 5,2 6,0 92,0 9,5 290 - 0,4 0 1.022,7
18:07 6,4 5,2 6,0 92,0 9,4 290 - 0,4 0 1.022,7
18:06 6,4 5,2 6,0 92,0 9,4 290 - 0,4 0 1.022,7
18:05 6,4 5,2 6,0 92,0 9,4 290 - 0,4 0 1.022,7
18:04 6,4 5,2 6,0 92,0 9,3 290 - 0,4 0 1.022,6
18:03 6,4 5,2 6,0 92,0 9,3 290 - 0,4 0 1.022,6
18:02 6,4 5,2 6,0 92,0 9,3 290 - 0,4 0 1.022,6
18:01 6,4 5,2 6,0 92,0 9,3 290 - 0,4 0 1.022,6
18:00 6,4 5,2 6,0 92,0 9,3 291 - 0,4 0 1.022,5
 
17:59 6,4 5,2 6,0 92,0 9,3 291 - 0,4 0 1.022,5
17:58 6,3 5,1 5,9 92,0 9,3 291 - 0,4 0 1.022,5
17:57 6,3 5,1 5,9 92,0 9,3 291 - 0,4 0 1.022,5
17:56 6,3 5,1 5,9 92,0 9,2 291 - 0,4 0 1.022,5
17:55 6,3 5,1 5,9 92,0 9,2 291 - 0,4 0 1.022,4
17:54 6,3 5,1 5,9 92,0 9,2 291 - 0,4 0 1.022,4
17:53 6,3 5,1 5,9 92,0 9,1 291 - 0,4 0 1.022,4
17:52 6,4 5,2 6,0 92,0 9,1 291 - 0,4 0 1.022,4
17:51 6,4 5,2 6,0 92,0 9,0 291 - 0,4 0 1.022,4
17:50 6,4 5,2 6,0 92,0 8,9 291 - 0,4 0 1.022,4
17:49 6,3 5,1 5,9 92,0 8,8 291 - 0,4 0 1.022,5
17:48 6,3 5,1 5,9 92,0 8,7 291 - 0,4 0 1.022,4
17:47 6,3 5,1 5,9 92,0 8,6 291 - 0,4 0 1.022,4
17:46 6,4 5,2 6,0 92,0 8,6 291 - 0,4 0 1.022,4
17:45 6,4 5,2 6,0 92,0 8,6 291 - 0,4 0 1.022,4
17:44 6,4 5,2 6,0 92,0 8,6 291 - 0,4 0 1.022,3
17:43 6,4 5,2 6,0 92,0 8,6 290 - 0,4 0 1.022,3
17:42 6,4 5,2 6,0 92,0 8,6 290 - 0,4 0 1.022,3
17:41 6,4 5,1 6,0 91,5 8,6 289 - 0,4 0 1.022,3
17:40 6,4 5,0 5,9 91,0 8,6 289 - 0,4 0 1.022,2
17:39 6,4 5,2 6,0 91,9 8,7 288 - 0,4 0 1.022,2
17:38 6,4 5,2 6,0 92,0 8,8 287 - 0,4 0 1.022,2
17:37 6,4 5,2 6,0 92,0 8,9 286 - 0,4 0 1.022,2
17:36 6,4 5,1 6,0 91,6 8,9 285 - 0,4 0 1.022,2
17:35 6,4 5,0 5,9 91,0 8,9 285 - 0,4 0 1.022,1
17:34 6,4 5,0 5,9 91,0 8,9 284 - 0,4 0 1.022,1
17:33 6,5 5,1 6,0 91,0 8,9 283 - 0,4 0 1.022,1
17:32 6,5 5,1 6,0 91,0 9,0 282 - 0,4 0 1.022,1
17:31 6,5 5,1 6,0 91,0 9,0 282 - 0,4 0 1.022,0
17:30 6,5 5,1 6,0 91,0 9,1 281 - 0,4 0 1.022,0
17:29 6,5 5,1 6,0 91,0 9,2 281 - 0,4 0 1.022,0
17:28 6,5 5,1 6,0 91,0 9,3 280 - 0,4 0 1.022,0
17:27 6,5 5,1 6,0 91,0 9,3 280 - 0,4 0 1.022,0
17:26 6,5 5,1 6,0 91,0 9,3 280 - 0,4 0 1.022,0
17:25 6,5 5,1 6,0 91,0 9,3 279 - 0,4 0 1.022,0
17:24 6,5 5,1 6,0 91,0 9,3 279 - 0,4 0 1.022,0
17:23 6,6 5,2 6,1 91,0 9,3 279 - 0,4 0 1.022,0
17:22 6,6 5,2 6,1 91,0 9,4 280 - 0,4 0 1.022,0
17:21 6,6 5,2 6,1 91,0 9,4 280 - 0,4 2 1.022,0
17:20 6,6 5,2 6,1 91,0 9,5 280 - 0,4 5 1.022,0
17:19 6,6 5,2 6,1 91,0 9,5 281 - 0,4 5 1.022,0
17:18 6,6 5,2 6,1 91,0 9,6 281 - 0,4 5 1.022,0
17:17 6,6 5,2 6,1 91,0 9,5 282 - 0,4 5 1.022,0
17:16 6,6 5,2 6,1 91,0 9,5 282 - 0,4 5 1.021,9
17:15 6,6 5,2 6,1 91,0 9,5 283 - 0,4 5 1.021,9
17:14 6,6 5,2 6,1 91,0 9,4 283 - 0,4 6 1.022,0
17:13 6,6 5,2 6,1 91,0 9,3 284 - 0,4 7 1.022,0
17:12 6,6 5,2 6,1 91,0 9,2 284 - 0,4 7 1.022,0
17:11 6,6 5,2 6,1 91,0 9,2 284 - 0,4 7 1.022,0
17:10 6,6 5,2 6,1 91,0 9,2 285 - 0,4 7 1.022,0
17:09 6,6 5,2 6,1 91,0 9,2 285 - 0,4 7 1.022,0
17:08 6,6 5,2 6,1 91,0 9,3 286 - 0,4 8 1.022,0
17:07 6,7 5,3 6,2 91,0 9,4 286 - 0,4 9 1.022,0
17:06 6,7 5,3 6,2 91,0 9,5 286 - 0,4 9 1.022,0
17:05 6,7 5,3 6,2 91,0 9,6 287 - 0,4 9 1.022,0
17:04 6,7 5,3 6,2 91,0 9,6 287 - 0,4 10 1.022,0
17:03 6,7 5,3 6,2 91,0 9,5 287 - 0,4 11 1.022,0
17:02 6,7 5,3 6,2 91,0 9,4 287 - 0,4 11 1.022,0
17:01 6,7 5,3 6,2 91,0 9,3 287 - 0,4 11 1.022,0
17:00 6,7 5,3 6,2 91,0 9,3 287 - 0,4 12 1.021,9
 
16:59 6,7 5,3 6,2 91,0 9,2 287 - 0,4 12 1.021,9
16:58 6,7 5,3 6,2 91,0 9,2 287 - 0,4 12 1.021,9
16:57 6,7 5,2 6,2 90,1 9,2 287 - 0,4 12 1.021,9
16:56 6,7 5,2 6,2 90,0 9,2 287 - 0,4 12 1.021,9
16:55 6,8 5,3 6,3 90,0 9,3 287 - 0,4 12 1.021,9
16:54 6,8 5,3 6,3 90,0 9,3 287 - 0,4 12 1.021,9
16:53 6,8 5,3 6,3 90,0 9,3 287 - 0,4 12 1.021,8
16:52 6,8 5,3 6,3 90,0 9,3 287 - 0,4 14 1.021,8
16:51 6,8 5,3 6,3 90,0 9,3 288 - 0,4 14 1.021,8
16:50 6,8 5,3 6,3 90,0 9,5 288 - 0,4 15 1.021,8
16:49 6,8 5,3 6,3 90,0 9,5 288 - 0,4 16 1.021,8
16:48 6,8 5,3 6,3 90,0 9,5 288 - 0,4 18 1.021,8
16:47 6,8 5,3 6,3 90,0 9,5 289 - 0,4 18 1.021,8
16:46 6,8 5,3 6,3 90,0 9,5 289 - 0,4 18 1.021,8
16:45 6,8 5,3 6,3 90,0 9,4 289 - 0,4 18 1.021,8
16:44 6,8 5,3 6,3 90,0 9,2 289 - 0,4 19 1.021,9
16:43 6,8 5,3 6,3 90,0 9,0 289 - 0,4 18 1.021,8
16:42 6,9 5,4 6,4 90,0 8,9 290 - 0,4 18 1.021,8
16:41 6,9 5,4 6,4 90,0 8,8 290 - 0,4 18 1.021,8
16:40 6,9 5,4 6,4 90,0 8,8 290 - 0,4 19 1.021,8
16:39 6,9 5,4 6,4 90,0 8,9 290 - 0,4 20 1.021,8
16:38 6,9 5,4 6,4 90,0 9,1 290 - 0,4 21 1.021,7
16:37 6,9 5,4 6,4 90,0 9,3 291 - 0,4 21 1.021,7
16:36 6,9 5,4 6,4 90,0 9,5 291 - 0,4 23 1.021,7
16:35 6,9 5,4 6,4 90,0 9,7 290 - 0,4 24 1.021,7
16:34 6,9 5,5 6,4 90,9 9,8 290 - 0,4 25 1.021,7
16:33 6,9 5,4 6,4 90,0 9,8 290 - 0,4 24 1.021,7
16:32 6,9 5,4 6,4 90,4 9,7 290 - 0,4 22 1.021,7
16:31 6,9 5,5 6,4 90,5 9,6 290 - 0,4 21 1.021,7
16:30 6,9 5,4 6,4 90,0 9,5 289 - 0,4 23 1.021,7
16:29 6,9 5,4 6,4 90,0 9,4 289 - 0,4 24 1.021,7
16:28 7,0 5,5 6,5 90,0 9,3 289 - 0,4 25 1.021,7
16:27 7,0 5,5 6,5 90,0 9,3 289 - 0,4 27 1.021,7
16:26 7,0 5,5 6,5 90,0 9,4 288 - 0,4 28 1.021,7
16:25 7,0 5,5 6,5 90,0 9,6 288 - 0,4 32 1.021,7
16:24 7,0 5,5 6,5 90,0 9,8 287 - 0,4 39 1.021,6
16:23 7,0 5,5 6,5 90,0 9,9 287 - 0,4 47 1.021,6
16:22 7,0 5,6 6,5 91,0 9,9 286 - 0,4 56 1.021,6
16:21 7,0 5,6 6,5 91,0 9,9 285 - 0,4 58 1.021,6
16:20 7,0 5,6 6,5 91,0 9,9 285 - 0,4 53 1.021,6
16:19 7,0 5,6 6,5 91,0 9,9 284 - 0,4 46 1.021,5
16:18 7,0 5,6 6,5 91,0 9,9 284 - 0,4 42 1.021,5
16:17 7,0 5,6 6,5 91,0 10,0 283 - 0,4 43 1.021,4
16:16 7,0 5,6 6,5 90,9 10,1 283 - 0,4 41 1.021,4
16:15 7,0 5,5 6,5 90,0 10,2 283 - 0,4 36 1.021,4
16:14 7,0 5,6 6,5 90,5 10,3 283 - 0,4 33 1.021,4
16:13 7,1 5,7 6,6 91,0 10,3 282 - 0,4 33 1.021,4
16:12 7,1 5,6 6,6 90,3 10,2 282 - 0,4 35 1.021,3
16:11 7,1 5,6 6,6 90,0 10,2 282 - 0,4 34 1.021,3
16:10 7,1 5,6 6,6 90,0 10,2 282 - 0,4 33 1.021,3
16:09 7,1 5,6 6,6 90,0 10,1 283 - 0,4 38 1.021,3
16:08 7,1 5,6 6,6 90,0 10,2 283 - 0,4 43 1.021,3
16:07 7,1 5,6 6,6 90,0 10,2 283 - 0,4 42 1.021,3
16:06 7,1 5,7 6,6 90,9 10,2 284 - 0,4 39 1.021,3
16:05 7,1 5,6 6,6 90,1 10,2 284 - 0,4 39 1.021,3
16:04 7,1 5,6 6,6 90,0 10,1 284 - 0,4 41 1.021,3
16:03 7,1 5,6 6,6 90,0 10,0 285 - 0,4 46 1.021,4
16:02 7,1 5,6 6,6 90,0 9,8 285 - 0,4 50 1.021,3
16:01 7,1 5,6 6,6 90,0 9,7 285 - 0,4 54 1.021,3
16:00 7,1 5,6 6,6 90,0 9,6 285 - 0,4 54 1.021,3
 
15:59 7,1 5,6 6,6 90,0 9,5 285 - 0,4 52 1.021,3
15:58 7,1 5,6 6,6 90,0 9,5 285 - 0,4 52 1.021,3
15:57 7,1 5,6 6,6 90,0 9,5 285 - 0,4 53 1.021,3
15:56 7,1 5,6 6,6 90,0 9,5 285 - 0,4 54 1.021,2
15:55 7,1 5,6 6,6 90,0 9,5 285 - 0,4 56 1.021,2
15:54 7,1 5,6 6,6 90,0 9,4 285 - 0,4 59 1.021,2
15:53 7,2 5,7 6,7 90,0 9,4 285 - 0,4 61 1.021,3
15:52 7,2 5,7 6,7 90,0 9,5 285 - 0,4 57 1.021,3
15:51 7,2 5,7 6,7 90,0 9,5 285 - 0,4 53 1.021,2
15:50 7,2 5,7 6,7 90,0 9,6 285 - 0,4 51 1.021,2
15:49 7,2 5,7 6,7 90,0 9,7 285 - 0,4 50 1.021,1
15:48 7,2 5,7 6,7 90,0 9,8 286 - 0,4 53 1.021,1
15:47 7,2 5,7 6,7 90,0 9,8 286 - 0,4 54 1.021,2
15:46 7,2 5,7 6,7 90,3 9,9 286 - 0,4 51 1.021,2
15:45 7,1 5,7 6,6 91,0 9,8 287 - 0,4 47 1.021,1
15:44 7,1 5,7 6,6 91,0 9,7 287 - 0,4 46 1.021,1
15:43 7,1 5,6 6,6 90,3 9,5 287 - 0,4 46 1.021,1
15:42 7,0 5,5 6,5 90,0 9,4 287 - 0,4 46 1.021,1
15:41 7,1 5,6 6,6 90,0 9,2 288 - 0,4 46 1.021,2
15:40 7,1 5,6 6,6 90,0 9,0 288 - 0,4 46 1.021,2
15:39 7,1 5,6 6,6 90,0 9,0 288 - 0,4 48 1.021,2
15:38 7,2 5,7 6,7 90,0 9,1 288 - 0,4 53 1.021,1
15:37 7,2 5,7 6,7 90,0 9,2 289 - 0,4 50 1.021,1
15:36 7,2 5,7 6,7 90,0 9,3 289 - 0,4 48 1.021,1
15:35 7,2 5,8 6,7 90,8 9,4 289 - 0,4 52 1.021,1
15:34 7,2 5,7 6,7 90,0 9,7 289 - 0,4 55 1.021,1
15:33 7,2 5,7 6,7 90,0 9,9 289 - 0,4 54 1.021,1
15:32 7,2 5,7 6,7 90,0 10,0 288 - 0,4 54 1.021,1
15:31 7,3 5,9 6,8 90,8 10,1 288 - 0,4 54 1.021,0
15:30 7,3 5,8 6,8 90,1 10,2 288 - 0,4 58 1.021,0
15:29 7,3 5,9 6,8 91,0 10,3 287 - 0,4 63 1.020,9
15:28 7,3 5,9 6,8 91,0 10,4 287 - 0,4 62 1.021,0
15:27 7,3 5,9 6,8 91,0 10,5 286 - 0,4 60 1.021,0
15:26 7,3 5,9 6,8 91,0 10,6 286 - 0,4 59 1.021,0
15:25 7,3 5,9 6,8 91,0 10,8 285 - 0,4 62 1.021,0
15:24 7,3 5,9 6,9 91,1 10,9 285 - 0,4 62 1.020,9
15:23 7,3 6,1 6,9 91,8 10,9 285 - 0,4 66 1.020,9
15:22 7,2 5,8 6,7 91,0 10,8 285 13,9 0,4 73 1.020,8
15:21 7,1 5,7 6,6 91,0 10,6 284 14,3 0,4 74 1.020,9
15:20 7,1 5,7 6,6 91,0 10,3 284 - 0,4 72 1.020,9
15:19 7,1 5,7 6,6 91,0 10,1 284 - 0,4 71 1.020,9
15:18 7,1 5,7 6,6 91,0 9,8 283 - 0,4 66 1.021,0
15:17 7,1 5,7 6,6 91,0 9,7 283 - 0,4 59 1.021,0
15:16 7,1 5,7 6,6 91,0 9,7 282 - 0,4 59 1.021,0
15:15 7,1 5,7 6,6 91,0 9,7 282 - 0,4 63 1.021,0
15:14 7,1 5,7 6,6 91,0 9,8 282 - 0,4 63 1.021,0
15:13 7,1 5,7 6,6 91,0 9,8 281 - 0,4 62 1.020,9
15:12 7,1 5,7 6,6 91,0 9,8 281 - 0,4 62 1.020,9
15:11 7,1 5,7 6,6 91,0 9,7 281 - 0,4 65 1.020,8
15:10 7,1 5,7 6,6 91,0 9,6 281 - 0,4 68 1.020,9
15:09 7,1 5,7 6,6 90,5 9,4 281 - 0,4 70 1.020,9
15:08 7,1 5,6 6,6 90,0 9,3 281 - 0,4 72 1.020,8
15:07 7,1 5,6 6,6 90,0 9,3 281 - 0,4 70 1.020,8
15:06 7,2 5,7 6,7 90,0 9,4 281 - 0,4 71 1.020,8
15:05 7,2 5,7 6,7 90,0 9,5 280 - 0,4 73 1.020,8
15:04 7,2 5,7 6,7 90,0 9,6 280 - 0,4 74 1.020,8
15:03 7,2 5,7 6,7 90,0 9,8 280 - 0,4 70 1.020,8
15:02 7,2 5,7 6,7 90,0 9,9 280 - 0,4 70 1.020,7
15:01 7,2 5,7 6,7 90,0 10,0 280 - 0,4 75 1.020,6
15:00 7,2 5,7 6,7 90,2 10,0 280 - 0,4 85 1.020,7
 
14:59 7,2 5,8 6,7 91,0 10,0 280 - 0,4 90 1.020,7
14:58 7,1 5,7 6,6 90,6 10,0 280 - 0,4 87 1.020,7
14:57 7,1 5,6 6,6 90,0 10,1 280 - 0,4 77 1.020,7
14:56 7,2 5,8 6,7 90,9 10,1 280 - 0,4 66 1.020,7
14:55 7,2 5,8 6,7 91,0 10,2 280 - 0,4 70 1.020,7
14:54 7,2 5,8 6,7 91,0 10,3 280 - 0,4 73 1.020,7
14:53 7,2 5,8 6,7 91,0 10,3 279 - 0,4 75 1.020,7
14:52 7,2 5,8 6,7 91,0 10,4 279 - 0,4 68 1.020,7
14:51 7,2 5,8 6,7 91,0 10,5 279 - 0,4 67 1.020,7
14:50 7,2 5,8 6,7 91,0 10,6 279 - 0,4 73 1.020,7
14:49 7,3 5,9 6,8 91,0 10,7 278 - 0,4 77 1.020,6
14:48 7,3 5,9 6,8 91,0 10,8 278 - 0,4 77 1.020,6
14:47 7,3 6,0 6,9 91,3 10,9 278 - 0,4 80 1.020,6
14:46 7,3 6,1 6,9 92,0 10,9 278 - 0,4 85 1.020,6
14:45 7,3 6,1 6,9 92,0 10,9 278 - 0,4 88 1.020,6
14:44 7,3 6,1 6,9 92,0 10,9 278 - 0,4 86 1.020,7
14:43 7,2 6,0 6,8 92,0 10,8 278 - 0,4 85 1.020,6
14:42 7,2 6,0 6,8 92,0 10,7 278 - 0,4 84 1.020,7
14:41 7,2 6,0 6,8 92,0 10,6 278 - 0,4 79 1.020,6
14:40 7,1 5,9 6,7 92,0 10,5 278 - 0,4 75 1.020,6
14:39 7,2 6,0 6,8 92,0 10,5 278 - 0,4 72 1.020,6
14:38 7,2 6,0 6,8 92,0 10,5 278 - 0,4 70 1.020,6
14:37 7,2 6,0 6,8 92,0 10,5 278 - 0,4 68 1.020,6
14:36 7,2 6,0 6,8 92,0 10,6 278 - 0,4 66 1.020,6
14:35 7,2 6,0 6,8 92,0 10,6 279 - 0,4 66 1.020,5
14:34 7,2 6,1 6,9 92,5 10,6 279 - 0,4 71 1.020,5
14:33 7,2 6,1 6,9 93,0 10,6 279 - 0,4 82 1.020,5
14:32 7,2 6,1 6,9 93,0 10,6 279 - 0,4 89 1.020,5
14:31 7,2 6,1 6,9 93,0 10,7 279 - 0,4 91 1.020,5
14:30 7,2 6,1 6,9 93,0 10,8 280 - 0,4 88 1.020,5
14:29 7,2 6,1 6,9 93,0 10,9 280 - 0,4 87 1.020,5
14:28 7,2 6,1 6,9 93,0 11,0 280 - 0,4 88 1.020,5
14:27 7,2 6,1 6,9 93,0 11,0 279 - 0,4 84 1.020,5
14:26 7,2 6,1 6,9 93,0 11,0 279 - 0,4 82 1.020,5
14:25 7,2 6,1 6,9 93,0 10,9 279 - 0,4 84 1.020,6
14:24 7,2 6,1 6,9 93,0 10,9 279 - 0,4 85 1.020,5
14:23 7,2 6,1 6,9 93,0 10,8 279 - 0,4 88 1.020,5
14:22 7,2 6,1 6,9 93,0 10,8 279 - 0,4 91 1.020,5
14:21 7,2 6,1 6,9 93,0 10,9 278 - 0,4 96 1.020,6
14:20 7,2 6,1 6,9 93,0 10,9 278 - 0,4 98 1.020,5
14:19 7,2 6,3 7,0 93,8 11,0 278 - 0,4 100 1.020,5
14:18 7,2 6,1 6,9 93,0 11,0 278 - 0,4 106 1.020,5
14:17 7,2 6,2 6,9 93,4 11,1 277 - 0,4 111 1.020,5
14:16 7,2 6,3 7,0 94,0 11,1 277 - 0,4 113 1.020,5
14:15 7,2 6,3 7,0 94,0 11,1 277 - 0,4 114 1.020,4
14:14 7,2 6,3 7,0 94,0 11,1 276 - 0,4 112 1.020,4
14:13 7,2 6,3 7,0 94,0 11,1 276 - 0,4 110 1.020,4
14:12 7,2 6,3 7,0 94,0 11,1 275 - 0,4 112 1.020,5
14:11 7,2 6,3 7,0 94,0 11,2 275 - 0,4 113 1.020,5
14:10 7,3 6,4 7,1 94,0 11,2 274 - 0,4 98 1.020,5
14:09 7,3 6,4 7,1 94,0 11,3 274 - 0,4 97 1.020,5
14:08 7,3 6,4 7,1 94,0 11,3 274 - 0,4 96 1.020,4
14:07 7,2 6,3 7,0 94,0 11,3 273 - 0,4 96 1.020,5
14:06 7,2 6,3 7,0 94,0 11,3 273 - 0,4 97 1.020,4
14:05 7,2 6,3 7,0 94,0 11,2 273 - 0,4 104 1.020,4
14:04 7,2 6,3 7,0 94,0 11,0 272 - 0,4 105 1.020,5
14:03 7,2 6,3 7,0 94,0 10,9 272 - 0,4 101 1.020,5
14:02 7,2 6,3 7,0 94,0 10,7 272 - 0,4 98 1.020,5
14:01 7,2 6,3 7,0 94,0 10,6 271 - 0,4 90 1.020,5
14:00 7,2 6,3 7,0 94,0 10,5 271 - 0,4 78 1.020,5
 
13:59 7,2 6,3 7,0 94,0 10,4 270 - 0,4 78 1.020,6
13:58 7,2 6,3 7,0 94,0 10,4 270 - 0,4 72 1.020,5
13:57 7,2 6,3 7,0 94,0 10,3 270 - 0,4 65 1.020,5
13:56 7,2 6,3 7,0 94,0 10,3 270 - 0,4 79 1.020,5
13:55 7,2 6,3 7,0 94,0 10,2 269 - 0,4 98 1.020,6
13:54 7,2 6,3 7,0 94,0 10,1 269 - 0,4 103 1.020,6
13:53 7,2 6,3 7,0 94,0 10,0 269 - 0,4 110 1.020,5
13:52 7,2 6,3 7,0 94,0 10,0 269 - 0,4 121 1.020,5
13:51 7,1 6,2 6,9 94,0 9,9 269 - 0,4 127 1.020,5
13:50 7,1 6,2 6,9 94,0 9,9 269 - 0,4 128 1.020,6
13:49 7,2 6,3 7,0 94,0 10,0 269 - 0,4 128 1.020,5
13:48 7,2 6,3 7,0 94,0 10,1 268 - 0,4 128 1.020,5
13:47 7,2 6,3 7,0 94,0 10,2 268 - 0,4 114 1.020,5
13:46 7,2 6,3 7,0 94,0 10,3 268 - 0,4 98 1.020,5
13:45 7,2 6,3 7,0 94,0 10,4 268 - 0,4 101 1.020,4
13:44 7,3 6,4 7,1 94,1 10,5 268 - 0,4 123 1.020,4
13:43 7,3 6,6 7,2 95,0 10,5 267 - 0,4 139 1.020,4
13:42 7,3 6,6 7,2 95,0 10,5 267 - 0,4 139 1.020,4
13:41 7,3 6,6 7,2 95,0 10,5 267 - 0,4 146 1.020,4
13:40 7,2 6,3 7,0 94,3 10,4 267 - 0,4 168 1.020,4
13:39 7,2 6,4 7,1 94,9 10,3 267 - 0,4 177 1.020,5
13:38 7,2 6,5 7,1 95,0 10,2 267 - 0,4 184 1.020,4
13:37 7,2 6,4 7,1 94,8 10,0 267 - 0,4 165 1.020,4
13:36 7,2 6,3 7,0 94,0 9,9 267 - 0,4 163 1.020,4
13:35 7,2 6,3 7,0 94,0 9,9 267 - 0,4 167 1.020,4
13:34 7,2 6,3 7,0 94,0 9,9 267 - 0,4 161 1.020,5
13:33 7,2 6,3 7,0 94,0 9,8 267 - 0,4 157 1.020,5
13:32 7,2 6,3 7,0 94,0 9,8 267 - 0,4 145 1.020,5
13:31 7,2 6,3 7,0 94,3 9,8 266 - 0,4 133 1.020,6
13:30 7,2 6,5 7,1 95,0 9,9 266 - 0,4 157 1.020,5
13:29 7,2 6,5 7,1 95,0 10,1 266 - 0,4 171 1.020,6
13:28 7,2 6,5 7,1 95,0 10,2 266 - 0,4 174 1.020,5
13:27 7,2 6,5 7,1 95,0 10,4 266 - 0,4 181 1.020,5
13:26 7,2 6,5 7,1 95,0 10,6 265 - 0,4 161 1.020,5
13:25 7,2 6,5 7,1 95,0 10,7 265 - 0,4 140 1.020,4
13:24 7,2 6,5 7,1 95,0 10,8 265 - 0,4 124 1.020,4
13:23 7,2 6,5 7,1 95,0 10,8 265 - 0,4 100 1.020,4
13:22 7,2 6,5 7,1 95,0 10,9 265 - 0,4 112 1.020,4
13:21 7,2 6,5 7,1 95,0 10,9 265 - 0,4 118 1.020,4
13:20 7,2 6,5 7,1 95,0 10,8 265 - 0,4 99 1.020,4
13:19 7,2 6,5 7,1 95,0 10,7 265 - 0,4 86 1.020,4
13:18 7,1 6,4 7,0 95,0 10,6 265 - 0,4 72 1.020,4
13:17 7,1 6,4 7,0 95,0 10,5 265 - 0,4 74 1.020,4
13:16 7,1 6,4 7,0 95,0 10,4 265 - 0,4 75 1.020,4
13:15 7,1 6,4 7,0 95,0 10,3 265 - 0,4 80 1.020,5
13:14 7,1 6,4 7,0 95,0 10,2 265 - 0,4 97 1.020,5
13:13 7,1 6,4 7,0 95,0 10,3 265 - 0,4 108 1.020,5
13:12 7,1 6,4 7,0 95,0 10,4 266 - 0,4 99 1.020,4
13:11 7,1 6,4 7,0 95,0 10,6 266 - 0,4 103 1.020,5
13:10 7,2 6,5 7,1 95,0 10,7 266 - 0,4 122 1.020,4
13:09 7,2 6,5 7,1 95,0 10,8 266 - 0,4 128 1.020,5
13:08 7,2 6,5 7,1 95,0 10,9 267 - 0,4 125 1.020,5
13:07 7,2 6,5 7,1 95,0 11,0 267 - 0,4 129 1.020,5
13:06 7,2 6,5 7,1 95,0 11,0 267 - 0,4 134 1.020,4
13:05 7,2 6,5 7,1 95,0 11,1 267 - 0,4 134 1.020,4
13:04 7,2 6,5 7,1 95,0 11,1 267 - 0,4 136 1.020,4
13:03 7,2 6,5 7,1 95,0 11,2 267 - 0,4 140 1.020,4
13:02 7,2 6,5 7,1 95,0 11,3 267 - 0,4 146 1.020,4
13:01 7,3 6,6 7,2 95,0 11,4 267 - 0,4 147 1.020,4
13:00 7,2 6,5 7,1 95,0 11,4 267 - 0,4 146 1.020,4
 
12:59 7,2 6,5 7,1 95,0 11,4 268 - 0,4 139 1.020,4
12:58 7,2 6,5 7,1 95,0 11,5 268 - 0,4 137 1.020,4
12:57 7,2 6,5 7,1 95,0 11,4 268 - 0,4 125 1.020,5
12:56 7,2 6,5 7,1 95,0 11,4 268 - 0,4 97 1.020,5
12:55 7,2 6,5 7,1 95,0 11,3 268 - 0,4 79 1.020,5
12:54 7,2 6,5 7,1 95,0 11,3 268 - 0,4 63 1.020,5
12:53 7,2 6,5 7,1 95,0 11,2 268 - 0,4 47 1.020,5
12:52 7,2 6,5 7,1 95,0 11,1 267 - 0,4 31 1.020,5
12:51 7,1 6,4 7,0 95,0 10,9 267 - 0,4 29 1.020,5
12:50 7,1 6,4 7,0 95,0 10,7 267 - 0,4 42 1.020,6
12:49 7,1 6,4 7,0 95,0 10,5 267 - 0,4 46 1.020,6
12:48 7,1 6,4 7,0 95,0 10,3 266 - 0,4 49 1.020,7
12:47 7,2 6,5 7,1 95,0 10,0 266 - 0,4 46 1.020,6
12:46 7,1 6,4 7,0 95,0 9,8 265 - 0,4 37 1.020,7
12:45 7,0 6,3 6,9 95,0 9,6 265 - 0,4 30 1.020,7
12:44 7,0 6,3 6,9 95,0 9,3 264 - 0,4 27 1.020,7
12:43 7,0 6,3 6,9 95,0 9,0 263 - 0,4 27 1.020,7
12:42 6,9 6,2 6,8 95,0 8,7 263 - 0,4 27 1.020,8
12:41 6,9 6,2 6,8 95,0 8,5 262 - 0,4 35 1.020,7
12:40 6,9 6,2 6,8 95,0 8,4 261 - 0,4 44 1.020,8
12:39 6,9 6,2 6,8 95,0 8,2 260 - 0,4 46 1.020,8
12:38 6,9 6,2 6,8 95,0 8,1 260 - 0,4 46 1.020,8
12:37 6,9 6,2 6,8 95,0 8,1 259 - 0,4 46 1.020,7
12:36 6,9 6,2 6,8 95,0 8,0 258 - 0,4 38 1.020,8
12:35 6,9 6,2 6,8 95,0 8,0 258 - 0,4 42 1.020,8
12:34 6,9 6,2 6,8 95,0 8,0 258 - 0,4 36 1.020,8
12:33 6,9 6,2 6,8 95,0 8,1 257 - 0,4 38 1.020,9
12:32 7,0 6,3 6,9 95,0 8,3 257 - 0,4 43 1.020,8
12:31 7,0 6,3 6,9 95,0 8,5 257 - 0,4 56 1.020,7
12:30 7,0 6,3 6,9 95,0 8,7 257 - 0,4 70 1.020,8
12:29 6,9 6,2 6,8 95,0 8,9 257 - 0,4 80 1.020,7
12:28 6,9 6,2 6,8 95,0 9,0 257 - 0,4 89 1.020,7
12:27 6,9 6,2 6,8 95,0 9,0 257 - 0,4 95 1.020,7
12:26 6,9 6,2 6,8 95,0 8,9 257 - 0,4 89 1.020,8
12:25 6,9 6,2 6,8 95,0 8,8 257 - 0,4 74 1.020,8
12:24 6,8 6,1 6,7 95,0 8,7 256 - 0,4 71 1.020,8
12:23 6,8 6,1 6,7 95,0 8,5 256 - 0,4 85 1.020,8
12:22 6,8 6,1 6,7 95,0 8,4 256 - 0,4 88 1.020,8
12:21 6,8 6,1 6,7 95,0 8,3 255 - 0,4 86 1.020,9
12:20 6,8 6,1 6,7 95,0 8,2 255 - 0,4 82 1.020,9
12:19 6,8 6,1 6,7 95,0 8,2 255 - 0,4 77 1.020,9
12:18 6,8 6,1 6,7 95,0 8,1 255 - 0,4 73 1.020,9
12:17 6,8 6,1 6,7 95,0 8,0 254 - 0,4 64 1.020,9
12:16 6,8 6,1 6,7 95,0 7,9 254 - 0,4 55 1.020,9
12:15 6,8 6,1 6,7 95,0 7,8 254 - 0,4 54 1.020,9
12:14 6,8 6,1 6,7 95,0 7,9 254 - 0,4 59 1.020,8
12:13 6,8 6,1 6,7 95,0 8,0 254 - 0,4 62 1.020,8
12:12 6,8 6,1 6,7 95,0 8,2 254 - 0,4 63 1.020,8
12:11 6,8 6,1 6,7 95,0 8,4 254 - 0,4 64 1.020,9
12:10 6,9 6,2 6,8 95,0 8,6 254 - 0,4 68 1.020,9
12:09 6,9 6,2 6,8 95,0 8,6 253 - 0,4 70 1.020,9
12:08 6,9 6,2 6,8 95,0 8,6 253 - 0,4 75 1.020,8
12:07 6,9 6,2 6,8 95,0 8,6 252 - 0,4 65 1.020,8
12:06 6,9 6,2 6,8 95,0 8,5 252 - 0,4 61 1.020,8
12:05 6,9 6,2 6,8 95,0 8,5 252 - 0,4 66 1.020,8
12:04 6,9 6,2 6,8 95,0 8,6 251 - 0,4 59 1.020,8
12:03 6,9 6,2 6,8 95,0 8,6 252 - 0,4 51 1.020,8
12:02 6,9 6,2 6,8 95,0 8,7 252 - 0,4 58 1.020,8
12:01 6,9 6,2 6,8 95,0 8,6 252 - 0,4 65 1.020,8
12:00 6,8 6,1 6,7 95,0 8,6 252 - 0,4 62 1.020,8
 
11:59 6,8 6,1 6,7 95,0 8,7 252 - 0,4 64 1.020,8
11:58 6,9 6,2 6,8 95,0 8,7 252 - 0,4 73 1.020,8
11:57 6,9 6,2 6,8 95,0 8,8 252 - 0,4 82 1.020,8
11:56 6,9 6,2 6,8 95,0 8,9 252 - 0,4 87 1.020,8
11:55 6,9 6,2 6,8 95,0 8,9 252 - 0,4 96 1.020,8
11:54 6,9 6,2 6,8 95,0 9,1 252 - 0,4 125 1.020,8
11:53 6,9 6,2 6,8 95,0 9,1 252 - 0,4 130 1.020,8
11:52 6,9 6,2 6,8 95,0 9,2 252 - 0,4 139 1.020,8
11:51 6,9 6,2 6,8 95,0 9,2 253 - 0,4 138 1.020,8
11:50 6,9 6,2 6,8 95,0 9,3 253 - 0,4 127 1.020,8
11:49 7,0 6,3 6,9 95,0 9,3 254 - 0,4 129 1.020,8
11:48 7,0 6,3 6,9 95,0 9,4 255 - 0,4 130 1.020,8
11:47 7,0 6,3 6,9 95,0 9,5 255 - 0,4 121 1.020,8
11:46 7,0 6,3 6,9 95,0 9,5 256 - 0,4 112 1.020,7
11:45 6,9 6,2 6,8 95,0 9,4 256 - 0,4 99 1.020,8
11:44 6,9 6,2 6,8 95,0 9,3 256 - 0,4 92 1.020,8
11:43 6,8 6,1 6,7 95,0 9,1 256 - 0,4 86 1.020,9
11:42 6,9 6,2 6,8 95,0 9,0 256 - 0,4 85 1.020,9
11:41 6,9 6,2 6,8 95,0 8,8 256 - 0,4 95 1.020,9
11:40 6,9 6,2 6,8 95,0 8,7 256 - 0,4 98 1.020,9
11:39 6,9 6,2 6,8 95,0 8,6 256 - 0,4 99 1.020,8
11:38 6,9 6,2 6,8 95,0 8,6 256 - 0,4 95 1.020,8
11:37 6,9 6,2 6,8 95,0 8,7 256 - 0,4 91 1.020,9
11:36 6,9 6,2 6,8 95,0 8,8 255 - 0,4 90 1.020,8
11:35 6,9 6,2 6,8 95,0 9,0 255 - 0,4 91 1.020,8
11:34 6,8 6,1 6,7 95,0 9,2 255 - 0,4 85 1.020,7
11:33 6,8 6,1 6,7 95,0 9,3 255 - 0,4 77 1.020,7
11:32 6,8 6,1 6,7 95,0 9,4 254 - 0,4 78 1.020,7
11:31 6,8 6,1 6,7 95,0 9,3 254 - 0,4 69 1.020,7
11:30 6,8 6,1 6,7 95,0 9,3 254 - 0,4 58 1.020,7
11:29 6,8 6,1 6,7 95,0 9,2 253 - 0,4 55 1.020,8
11:28 6,8 6,1 6,7 95,0 9,2 253 - 0,4 45 1.020,8
11:27 6,7 6,0 6,5 95,0 9,2 253 - 0,4 42 1.020,8
11:26 6,8 6,1 6,7 95,0 9,2 253 - 0,4 46 1.020,8
11:25 6,7 6,0 6,5 95,0 9,1 253 - 0,4 58 1.020,8
11:24 6,7 6,0 6,5 95,0 9,0 253 - 0,4 58 1.020,8
11:23 6,8 6,1 6,7 95,0 8,9 254 - 0,4 60 1.020,8
11:22 6,7 6,0 6,5 95,0 8,9 254 - 0,4 61 1.020,7
11:21 6,8 6,1 6,7 95,0 9,0 254 - 0,4 62 1.020,7
11:20 6,8 6,1 6,7 95,0 9,2 254 - 0,4 62 1.020,7
11:19 6,8 6,1 6,7 95,0 9,4 253 - 0,4 67 1.020,6
11:18 6,8 6,1 6,7 95,0 9,6 253 - 0,4 80 1.020,7
11:17 6,8 6,1 6,7 95,0 9,7 253 - 0,4 98 1.020,7
11:16 6,8 6,1 6,7 95,0 9,8 252 - 0,4 104 1.020,6
11:15 6,8 6,1 6,7 95,0 9,8 252 - 0,4 97 1.020,6
11:14 6,7 6,0 6,5 95,0 9,8 251 - 0,4 83 1.020,7
11:13 6,7 6,0 6,5 95,0 9,8 251 - 0,4 71 1.020,6
11:12 6,7 6,0 6,5 95,0 9,7 250 - 0,4 61 1.020,6
11:11 6,7 6,0 6,5 95,0 9,7 250 - 0,4 61 1.020,6
11:10 6,7 6,0 6,5 95,0 9,5 249 - 0,4 61 1.020,6
11:09 6,7 6,0 6,5 95,0 9,5 249 - 0,4 57 1.020,6
11:08 6,7 6,0 6,5 95,0 9,6 248 - 0,4 49 1.020,6
11:07 6,7 6,0 6,5 95,0 9,7 248 - 0,4 48 1.020,6
11:06 6,7 6,0 6,5 95,0 9,7 248 - 0,4 44 1.020,6
11:05 6,8 6,1 6,7 95,0 9,7 248 - 0,4 44 1.020,6
11:04 6,8 6,1 6,7 95,0 9,8 248 - 0,4 46 1.020,6
11:03 6,8 6,1 6,7 95,0 10,0 248 - 0,4 43 1.020,5
11:02 6,8 6,1 6,7 95,0 10,1 249 - 0,4 53 1.020,5
11:01 6,8 6,1 6,7 95,0 10,0 249 - 0,4 52 1.020,5
11:00 6,7 6,0 6,5 95,0 9,9 250 - 0,4 51 1.020,5
 
10:59 6,7 6,0 6,5 95,0 9,9 250 - 0,4 51 1.020,5
10:58 6,7 6,0 6,5 95,0 9,9 251 - 0,4 50 1.020,5
10:57 6,7 6,0 6,5 95,0 9,9 252 - 0,4 59 1.020,5
10:56 6,7 6,0 6,5 95,0 9,9 253 - 0,4 55 1.020,5
10:55 6,6 5,9 6,4 95,0 9,9 254 - 0,4 46 1.020,4
10:54 6,6 5,9 6,4 95,0 10,0 255 - 0,4 38 1.020,5
10:53 6,7 6,0 6,5 95,0 10,0 255 - 0,4 36 1.020,5
10:52 6,7 6,0 6,5 95,0 9,9 256 - 0,4 39 1.020,4
10:51 6,6 5,9 6,4 95,0 9,9 256 - 0,4 51 1.020,4
10:50 6,6 5,9 6,4 95,0 9,8 256 - 0,4 45 1.020,4
10:49 6,7 6,0 6,5 95,0 9,9 256 - 0,4 38 1.020,4
10:48 6,7 6,0 6,5 95,0 10,0 256 - 0,4 35 1.020,4
10:47 6,7 6,0 6,5 95,0 10,1 256 - 0,4 31 1.020,4
10:46 6,7 6,0 6,5 95,0 10,3 256 - 0,4 30 1.020,4
10:45 6,7 6,0 6,5 95,0 10,4 255 - 0,4 29 1.020,4
10:44 6,7 6,0 6,5 95,0 10,5 255 - 0,4 34 1.020,4
10:43 6,7 6,0 6,5 95,0 10,6 254 - 0,4 28 1.020,4
10:42 6,7 6,0 6,5 95,0 10,5 253 - 0,4 31 1.020,4
10:41 6,7 6,0 6,5 95,0 10,4 252 - 0,4 33 1.020,3
10:40 6,7 6,0 6,5 95,0 10,5 252 - 0,4 35 1.020,3
10:39 6,7 6,0 6,5 95,0 10,5 251 - 0,4 30 1.020,3
10:38 6,7 6,0 6,5 95,0 10,5 250 - 0,4 27 1.020,2
10:37 6,7 6,0 6,5 95,0 10,4 250 - 0,4 30 1.020,2
10:36 6,7 6,0 6,5 95,0 10,2 249 - 0,4 29 1.020,3
10:35 6,7 6,0 6,5 95,0 10,0 249 - 0,4 26 1.020,3
10:34 6,7 6,0 6,5 95,0 9,9 248 - 0,4 23 1.020,3
10:33 6,7 6,0 6,5 95,0 9,9 248 - 0,4 29 1.020,3
10:32 6,7 6,0 6,5 95,0 9,9 248 - 0,4 35 1.020,3
10:31 6,7 6,0 6,5 95,0 9,8 247 - 0,4 34 1.020,3
10:30 6,7 6,0 6,5 95,0 9,8 247 - 0,4 31 1.020,3
10:29 6,7 6,0 6,5 95,0 9,9 247 - 0,4 29 1.020,3
10:28 6,7 6,0 6,5 95,0 10,0 246 - 0,4 34 1.020,3
10:27 6,7 6,0 6,5 95,0 10,1 246 - 0,4 40 1.020,4
10:26 6,7 6,0 6,5 95,0 10,2 246 - 0,4 44 1.020,3
10:25 6,7 6,0 6,5 95,0 10,3 246 - 0,4 38 1.020,3
10:24 6,7 6,0 6,5 95,0 10,3 246 - 0,4 38 1.020,3
10:23 6,7 6,0 6,5 95,0 10,3 247 - 0,4 44 1.020,3
10:22 6,6 5,9 6,4 95,0 10,1 247 - 0,4 46 1.020,2
10:21 6,6 5,9 6,4 95,0 10,0 247 - 0,4 43 1.020,3
10:20 6,6 5,9 6,4 95,0 9,9 248 - 0,4 51 1.020,3
10:19 6,6 5,9 6,4 95,0 9,7 248 - 0,4 57 1.020,3
10:18 6,6 5,9 6,4 95,0 9,6 248 - 0,4 60 1.020,3
10:17 6,6 5,9 6,4 95,0 9,5 247 - 0,4 64 1.020,3
10:16 6,6 5,9 6,4 95,0 9,5 247 - 0,4 61 1.020,3
10:15 6,6 5,9 6,4 95,0 9,6 246 - 0,4 60 1.020,3
10:14 6,6 5,9 6,4 95,0 9,6 246 - 0,4 62 1.020,2
10:13 6,6 5,9 6,4 95,0 9,7 246 - 0,4 63 1.020,2
10:12 6,6 5,9 6,4 95,0 9,8 246 - 0,4 68 1.020,2
10:11 6,7 6,0 6,5 95,0 10,0 246 - 0,4 66 1.020,2
10:10 6,7 6,0 6,5 95,0 10,1 246 - 0,4 57 1.020,2
10:09 6,6 5,9 6,4 95,0 10,1 247 - 0,4 48 1.020,2
10:08 6,6 5,9 6,4 95,0 10,1 247 - 0,4 43 1.020,2
10:07 6,6 5,9 6,4 95,0 10,0 248 - 0,4 41 1.020,3
10:06 6,7 6,0 6,5 95,0 9,8 248 - 0,4 45 1.020,2
10:05 6,7 6,0 6,5 95,0 9,7 249 - 0,4 52 1.020,2
10:04 6,8 6,1 6,7 95,0 9,6 250 - 0,4 46 1.020,2
10:03 6,8 6,1 6,7 95,0 9,7 250 - 0,4 41 1.020,2
10:02 6,8 6,1 6,7 95,0 9,8 251 - 0,4 47 1.020,2
10:01 6,8 6,1 6,7 95,0 10,1 252 - 0,4 57 1.020,2
10:00 6,8 6,1 6,7 95,0 10,5 253 - 0,4 70 1.020,2
 
09:59 6,8 6,1 6,7 95,0 10,8 253 - 0,4 74 1.020,2
09:58 6,8 6,1 6,7 95,0 11,0 254 - 0,4 84 1.020,1
09:57 6,8 6,1 6,7 95,0 11,0 255 - 0,4 91 1.020,1
09:56 6,8 6,1 6,7 95,0 11,1 255 - 0,4 86 1.020,0
09:55 6,8 6,1 6,7 95,0 11,1 256 - 0,4 74 1.020,0
09:54 6,7 6,0 6,5 95,0 11,2 256 - 0,4 61 1.020,1
09:53 6,7 6,0 6,5 95,0 11,3 256 - 0,4 58 1.020,1
09:52 6,7 6,0 6,5 95,0 11,4 256 - 0,4 58 1.020,1
09:51 6,7 6,0 6,5 95,0 11,3 256 - 0,4 57 1.020,1
09:50 6,6 5,9 6,4 95,0 11,2 256 - 0,4 53 1.020,2
09:49 6,6 5,9 6,4 95,0 11,1 256 - 0,4 53 1.020,2
09:48 6,6 5,9 6,4 95,0 10,9 255 - 0,4 57 1.020,2
09:47 6,6 5,9 6,4 95,0 10,9 255 - 0,4 55 1.020,3
09:46 6,6 5,9 6,4 95,0 10,8 255 - 0,4 51 1.020,3
09:45 6,6 5,9 6,4 95,0 10,8 254 - 0,4 48 1.020,2
09:44 6,7 6,0 6,5 95,0 10,9 254 - 0,4 43 1.020,2
09:43 6,7 6,0 6,5 95,0 10,9 254 - 0,4 36 1.020,2
09:42 6,7 6,0 6,6 95,4 11,0 253 - 0,4 26 1.020,2
09:41 6,7 6,1 6,6 96,0 11,1 253 - 0,4 26 1.020,2
09:40 6,7 6,1 6,6 96,0 11,1 253 - 0,4 21 1.020,2
09:39 6,5 5,9 6,4 96,0 10,9 253 15,2 0,4 21 1.020,2
09:38 6,5 5,9 6,4 96,0 10,7 253 15,2 0,4 19 1.020,3
09:37 6,5 5,9 6,4 96,0 10,4 253 - 0,4 15 1.020,3
09:36 6,4 5,8 6,3 96,0 10,3 253 - 0,4 12 1.020,4
09:35 6,4 5,8 6,3 96,0 10,1 253 - 0,4 9 1.020,4
09:34 6,4 5,8 6,3 96,0 10,0 253 - 0,4 9 1.020,4
09:33 6,4 5,8 6,3 96,0 10,0 253 - 0,4 9 1.020,4
09:32 6,4 5,8 6,3 96,0 10,0 253 - 0,4 10 1.020,4
09:31 6,4 5,8 6,3 96,0 10,1 254 - 0,4 12 1.020,4
09:30 6,4 5,8 6,3 96,0 10,1 254 - 0,4 12 1.020,4
09:29 6,3 5,7 6,2 96,0 10,0 253 - 0,4 14 1.020,4
09:28 6,3 5,7 6,2 96,0 9,8 253 - 0,4 12 1.020,4
09:27 6,2 5,6 6,1 96,0 9,5 253 - 0,4 12 1.020,5
09:26 6,2 5,6 6,1 96,0 9,3 252 - 0,4 11 1.020,5
09:25 6,2 5,6 6,1 96,0 9,0 251 - 0,4 10 1.020,6
09:24 6,2 5,6 6,1 96,0 8,7 251 - 0,4 9 1.020,5
09:23 6,2 5,6 6,1 96,0 8,6 250 - 0,4 9 1.020,5
09:22 6,2 5,6 6,1 96,0 8,5 249 - 0,4 9 1.020,6
09:21 6,2 5,6 6,1 96,0 8,6 248 - 0,4 8 1.020,5
09:20 6,2 5,6 6,1 96,0 8,6 248 - 0,4 7 1.020,5
09:19 6,2 5,6 6,1 96,0 8,8 247 - 0,4 6 1.020,5
09:18 6,2 5,6 6,1 96,0 9,0 246 - 0,4 5 1.020,5
09:17 6,2 5,6 6,1 96,0 9,1 246 - 0,4 7 1.020,5
09:16 6,2 5,6 6,1 96,0 9,1 245 - 0,4 7 1.020,4
09:15 6,2 5,6 6,1 96,0 9,0 245 - 0,4 7 1.020,5
09:14 6,1 5,5 6,0 96,0 8,9 244 - 0,4 6 1.020,6
09:13 6,1 5,5 6,0 96,0 8,8 244 - 0,4 5 1.020,5
09:12 6,1 5,5 6,0 96,0 8,7 244 - 0,4 5 1.020,6
09:11 6,1 5,5 6,0 96,0 8,7 244 - 0,4 5 1.020,6
09:10 6,1 5,4 5,9 95,3 8,7 244 - 0,4 5 1.020,6
09:09 6,1 5,4 5,9 95,0 8,7 244 - 0,4 5 1.020,6
09:08 6,1 5,4 5,9 95,0 8,7 244 - 0,4 5 1.020,5
09:07 6,1 5,4 5,9 95,0 8,7 244 - 0,4 5 1.020,6
09:06 6,1 5,4 5,9 95,0 8,7 244 - 0,4 5 1.020,6
09:05 6,1 5,4 5,9 95,0 8,7 244 - 0,4 5 1.020,5
09:04 6,1 5,4 5,9 95,0 8,7 243 - 0,4 5 1.020,5
09:03 6,1 5,4 5,9 95,0 8,8 243 - 0,4 5 1.020,5
09:02 6,1 5,4 5,9 95,0 8,9 243 - 0,4 5 1.020,5
09:01 6,2 5,5 6,0 95,0 9,0 243 - 0,4 6 1.020,5
09:00 6,2 5,5 6,0 95,0 9,1 243 - 0,4 7 1.020,4
 
08:59 6,2 5,5 6,0 95,0 9,1 243 - 0,4 7 1.020,5
08:58 6,1 5,4 5,9 95,0 9,1 242 - 0,4 6 1.020,5
08:57 6,1 5,4 5,9 95,0 9,1 242 - 0,4 5 1.020,5
08:56 6,1 5,4 5,9 95,0 9,1 241 - 0,4 5 1.020,5
08:55 6,2 5,5 6,0 95,0 9,1 241 - 0,4 5 1.020,4
08:54 6,2 5,5 6,0 95,0 9,1 240 - 0,4 5 1.020,5
08:53 6,2 5,5 6,0 95,0 9,0 239 - 0,4 4 1.020,4
08:52 6,2 5,5 6,0 95,0 8,9 239 - 0,4 0 1.020,5
08:51 6,1 5,4 5,9 95,0 8,7 239 - 0,4 0 1.020,5
08:50 6,2 5,5 6,0 95,0 8,5 238 - 0,4 0 1.020,5
08:49 6,2 5,5 6,0 95,0 8,3 238 - 0,4 0 1.020,5
08:48 6,2 5,5 6,0 95,0 8,1 238 - 0,4 0 1.020,5
08:47 6,2 5,5 6,0 95,0 8,1 238 - 0,4 0 1.020,5
08:46 6,2 5,5 6,0 95,0 8,1 238 - 0,4 0 1.020,5
08:45 6,1 5,4 5,9 95,0 8,2 238 - 0,4 0 1.020,5
08:44 6,1 5,4 5,9 95,0 8,2 238 - 0,4 0 1.020,4
08:43 6,1 5,4 5,9 95,0 8,2 238 - 0,4 0 1.020,5
08:42 6,1 5,4 5,9 95,0 8,2 237 - 0,4 0 1.020,5
08:41 6,1 5,4 5,9 95,0 8,2 237 - 0,4 0 1.020,5
08:40 6,1 5,4 5,9 95,0 8,2 238 - 0,4 0 1.020,5
08:39 6,1 5,4 5,9 95,0 8,3 238 - 0,4 0 1.020,4
08:38 6,2 5,5 6,0 95,0 8,4 238 - 0,4 0 1.020,5
08:37 6,2 5,5 6,0 95,0 8,5 238 - 0,4 0 1.020,5
08:36 6,2 5,5 6,0 95,0 8,6 239 - 0,4 0 1.020,5
08:35 6,2 5,5 6,0 95,0 8,6 239 - 0,4 0 1.020,5
08:34 6,2 5,5 6,0 95,0 8,6 239 - 0,4 0 1.020,5
08:33 6,2 5,5 6,0 95,0 8,6 240 - 0,4 0 1.020,5
08:32 6,2 5,5 6,0 95,0 8,6 241 - 0,4 0 1.020,5
08:31 6,2 5,5 6,0 95,0 8,7 241 - 0,4 0 1.020,4
08:30 6,2 5,5 6,0 95,0 8,9 241 - 0,4 0 1.020,4
08:29 6,2 5,5 6,0 95,0 9,1 241 - 0,4 0 1.020,4
08:28 6,2 5,5 6,0 95,0 9,3 241 - 0,4 0 1.020,4
08:27 6,1 5,4 5,9 95,0 9,3 241 - 0,4 0 1.020,4
08:26 6,1 5,4 5,9 95,0 9,2 241 - 0,4 0 1.020,4
08:25 6,1 5,4 5,9 95,0 9,1 241 - 0,4 0 1.020,5
08:24 6,1 5,4 5,9 95,0 9,0 240 - 0,4 0 1.020,4
08:23 6,1 5,4 5,9 95,0 8,9 240 - 0,4 0 1.020,4
08:22 6,1 5,4 5,9 95,0 8,9 239 - 0,4 0 1.020,4
08:21 6,1 5,4 5,9 95,0 8,7 239 - 0,4 0 1.020,4
08:20 6,1 5,4 5,9 95,0 8,4 238 - 0,4 0 1.020,4
08:19 6,2 5,5 6,0 95,0 8,3 238 - 0,4 0 1.020,4
08:18 6,1 5,4 5,9 95,0 8,3 237 - 0,4 0 1.020,4
08:17 6,1 5,4 5,9 95,0 8,3 237 - 0,4 0 1.020,4
08:16 6,1 5,4 5,9 95,0 8,3 237 - 0,4 0 1.020,4
08:15 6,1 5,4 5,9 95,0 8,3 236 - 0,4 0 1.020,4
08:14 6,1 5,4 5,9 95,0 8,4 236 - 0,4 0 1.020,4
08:13 6,1 5,4 5,9 95,0 8,6 235 - 0,4 0 1.020,4
08:12 6,1 5,4 5,9 95,0 8,7 235 - 0,2 0 1.020,3
08:11 6,1 5,4 5,9 95,0 8,6 235 - 0,2 0 1.020,4
08:10 6,1 5,4 5,9 95,0 8,5 235 - 0,2 0 1.020,4
08:09 6,1 5,4 5,9 95,0 8,4 235 - 0,2 0 1.020,4
08:08 6,1 5,4 5,9 95,0 8,2 235 - 0,2 0 1.020,4
08:07 6,1 5,4 5,9 95,0 8,1 236 - 0,2 0 1.020,4
08:06 6,1 5,4 5,9 95,0 8,2 237 - 0,2 0 1.020,4
08:05 6,1 5,4 5,9 95,0 8,3 237 - 0,2 0 1.020,3
08:04 6,1 5,4 5,9 95,0 8,5 237 - 0,2 0 1.020,3
08:03 6,1 5,4 5,9 95,0 8,7 237 - 0,2 0 1.020,3
08:02 6,1 5,4 5,9 95,0 8,8 237 - 0,2 0 1.020,4
08:01 6,1 5,4 5,9 95,0 8,7 237 - 0,2 0 1.020,3
08:00 6,1 5,4 5,9 95,0 8,5 237 - 0,2 0 1.020,3
 
07:59 6,1 5,4 5,9 95,0 8,3 237 - 0,2 0 1.020,3
07:58 6,0 5,3 5,8 95,0 8,1 237 - 0,2 0 1.020,4
07:57 6,0 5,3 5,8 95,0 7,9 237 - 0,2 0 1.020,3
07:56 6,0 5,3 5,8 95,0 7,8 237 - 0,0 0 1.020,3
07:55 6,0 5,3 5,8 95,0 7,8 237 - 0,0 0 1.020,3
07:54 6,0 5,2 5,8 94,3 7,9 238 - 0,0 0 1.020,3
07:53 6,0 5,1 5,7 94,0 8,1 238 - 0,0 0 1.020,3
07:52 6,0 5,1 5,8 94,2 8,2 238 - 0,0 0 1.020,4
07:51 6,0 5,2 5,8 94,7 8,3 239 - 0,0 0 1.020,4
07:50 6,0 5,1 5,7 94,0 8,4 239 - 0,0 0 1.020,4
07:49 6,0 5,1 5,7 94,0 8,5 239 - 0,0 0 1.020,4
07:48 6,0 5,1 5,7 94,0 8,5 239 - 0,0 0 1.020,3
07:47 6,0 5,1 5,7 94,0 8,6 239 - 0,0 0 1.020,4
07:46 5,9 5,0 5,6 94,0 8,8 240 - 0,0 0 1.020,4
07:45 6,0 5,1 5,7 94,0 8,9 240 - 0,0 0 1.020,5
07:44 6,0 5,1 5,7 94,0 8,9 240 - 0,0 0 1.020,4
07:43 6,0 5,1 5,7 94,0 8,8 241 - 0,0 0 1.020,4
07:42 6,0 5,1 5,7 94,0 8,8 241 - 0,0 0 1.020,4
07:41 6,0 5,1 5,7 94,0 8,7 241 - 0,0 0 1.020,4
07:40 6,1 5,2 5,8 94,0 8,7 241 - 0,0 0 1.020,4
07:39 6,1 5,2 5,8 94,0 8,7 241 - 0,0 0 1.020,4
07:38 6,1 5,2 5,8 94,0 8,8 241 - 0,0 0 1.020,4
07:37 6,1 5,2 5,8 94,0 8,8 240 - 0,0 0 1.020,3
07:36 6,1 5,2 5,8 94,0 8,9 240 - 0,0 0 1.020,3
07:35 6,1 5,2 5,8 94,0 8,9 239 - 0,0 0 1.020,3
07:34 6,1 5,2 5,8 94,0 8,8 238 - 0,0 0 1.020,3
07:33 6,1 5,2 5,8 94,0 8,9 238 - 0,0 0 1.020,3
07:32 6,1 5,2 5,8 94,0 8,8 238 - 0,0 0 1.020,4
07:31 6,1 5,2 5,8 94,0 8,9 237 - 0,0 0 1.020,4
07:30 6,0 5,1 5,7 94,0 8,9 237 - 0,0 0 1.020,4
07:29 6,1 5,2 5,8 94,0 9,1 237 - 0,0 0 1.020,4
07:28 6,1 5,2 5,8 93,8 9,2 237 - 0,0 0 1.020,4
07:27 6,1 5,1 5,8 93,0 9,2 238 - 0,0 0 1.020,4
07:26 6,1 5,1 5,8 93,0 9,3 238 - 0,0 0 1.020,3
07:25 6,1 5,1 5,8 93,0 9,3 238 - 0,0 0 1.020,4
07:24 6,1 5,1 5,8 93,0 9,2 239 - 0,0 0 1.020,4
07:23 6,1 5,1 5,8 93,0 9,1 239 - 0,0 0 1.020,3
07:22 6,1 5,1 5,8 93,0 8,9 240 - 0,0 0 1.020,4
07:21 6,1 5,1 5,8 93,0 8,7 240 - 0,0 0 1.020,4
07:20 6,1 5,1 5,8 93,0 8,6 240 - 0,0 0 1.020,4
07:19 6,1 5,1 5,8 93,0 8,5 241 - 0,0 0 1.020,4
07:18 6,1 5,1 5,8 93,0 8,5 241 - 0,0 0 1.020,4
07:17 6,2 5,2 5,9 93,0 8,4 241 - 0,0 0 1.020,4
07:16 6,2 5,2 5,9 93,0 8,3 241 - 0,0 0 1.020,4
07:15 6,2 5,2 5,9 93,0 8,1 242 11,2 0,0 0 1.020,4
07:14 6,2 5,2 5,9 93,0 8,1 242 - 0,0 0 1.020,4
07:13 6,2 5,2 5,9 93,0 7,9 242 - 0,0 0 1.020,4
07:12 6,2 5,2 5,9 93,0 7,8 242 - 0,0 0 1.020,5
07:11 6,2 5,0 5,8 92,0 7,8 241 11,2 0,0 0 1.020,4
07:10 6,2 5,0 5,8 92,0 8,0 241 - 0,0 0 1.020,4
07:09 6,2 5,0 5,8 92,0 8,0 240 - 0,0 0 1.020,5
07:08 6,2 5,0 5,8 92,0 8,0 239 - 0,0 0 1.020,4
07:07 6,2 5,0 5,8 92,0 7,9 238 - 0,0 0 1.020,5
07:06 6,3 5,1 5,9 92,0 7,9 237 - 0,0 0 1.020,5
07:05 6,3 5,1 5,9 92,0 7,9 236 - 0,0 0 1.020,5
07:04 6,4 5,2 6,0 92,0 8,0 235 - 0,0 0 1.020,5
07:03 6,4 5,2 6,0 92,0 8,1 234 - 0,0 0 1.020,5
07:02 6,4 5,2 6,0 92,0 8,3 234 - 0,0 0 1.020,5
07:01 6,4 5,2 6,0 92,0 8,5 233 - 0,0 0 1.020,5
07:00 6,5 5,3 6,1 92,0 8,6 232 - 0,0 0 1.020,4
 
06:59 6,5 5,3 6,1 91,8 8,6 231 - 0,0 0 1.020,5
06:58 6,5 5,1 6,0 91,0 8,5 230 - 0,0 0 1.020,5
06:57 6,5 5,1 6,0 91,0 8,4 230 - 0,0 0 1.020,6
06:56 6,5 5,1 6,0 91,0 8,3 229 - 0,0 0 1.020,5
06:55 6,6 5,2 6,1 91,0 8,2 228 - 0,0 0 1.020,6
06:54 6,6 5,2 6,1 91,0 8,1 228 - 0,0 0 1.020,5
06:53 6,6 5,2 6,1 91,0 8,1 228 - 0,0 0 1.020,6
06:52 6,6 5,2 6,1 91,0 8,1 228 - 0,0 0 1.020,6
06:51 6,6 5,2 6,1 91,0 8,1 228 - 0,0 0 1.020,7
06:50 6,6 5,2 6,1 91,0 8,1 228 11,6 0,0 0 1.020,7
06:49 6,6 5,2 6,1 91,0 8,1 228 - 0,0 0 1.020,7
06:48 6,6 5,2 6,1 91,0 8,1 229 11,6 0,0 0 1.020,8
06:47 6,6 5,2 6,1 91,0 8,2 229 - 0,0 0 1.020,7
06:46 6,6 5,2 6,1 91,0 8,4 229 - 0,0 0 1.020,7
06:45 6,6 5,2 6,1 91,0 8,6 230 - 0,0 0 1.020,7
06:44 6,6 5,2 6,1 91,0 8,8 230 - 0,0 0 1.020,7
06:43 6,6 5,2 6,1 91,0 8,8 230 - 0,0 0 1.020,8
06:42 6,6 5,2 6,1 91,0 8,8 231 - 0,0 0 1.020,7
06:41 6,6 5,2 6,1 91,0 8,5 232 12,1 0,0 0 1.020,7
06:40 6,6 5,2 6,1 91,0 8,3 233 - 0,0 0 1.020,7
06:39 6,6 5,2 6,1 91,0 8,2 233 - 0,0 0 1.020,8
06:38 6,6 5,2 6,1 91,0 8,2 234 - 0,0 0 1.020,9
06:37 6,6 5,2 6,1 91,0 8,3 234 12,1 0,0 0 1.020,9
06:36 6,6 5,2 6,1 91,0 8,4 233 - 0,0 0 1.020,9
06:35 6,6 5,2 6,1 90,7 8,6 233 12,1 0,0 0 1.020,8
06:34 6,6 5,1 6,1 90,0 8,6 232 13,4 0,0 0 1.020,8
06:33 6,6 5,1 6,1 90,0 8,4 231 - 0,0 0 1.021,0
06:32 6,6 5,1 6,1 90,0 8,0 230 - 0,0 0 1.020,9
06:31 6,6 5,1 6,1 90,0 7,7 230 10,7 0,0 0 1.021,0
06:30 6,6 5,1 6,1 90,0 7,5 229 - 0,0 0 1.020,9
06:29 6,6 5,1 6,1 90,0 7,6 229 10,7 0,0 0 1.020,9
06:28 6,6 5,1 6,1 90,0 7,7 228 11,6 0,0 0 1.021,0
06:27 6,6 5,1 6,1 90,0 7,9 229 12,1 0,0 0 1.020,9
06:26 6,6 5,1 6,1 90,0 8,1 229 - 0,0 0 1.021,0
06:25 6,6 5,1 6,1 90,0 8,0 229 12,5 0,0 0 1.020,9
06:24 6,5 5,0 6,0 90,0 7,7 230 - 0,0 0 1.021,0
06:23 6,5 5,0 6,0 90,0 7,5 230 - 0,0 0 1.021,0
06:22 6,5 5,0 6,0 90,0 7,2 231 10,3 0,0 0 1.020,9
06:21 6,5 5,0 6,0 90,0 7,0 231 - 0,0 0 1.021,0
06:20 6,4 4,9 5,8 90,0 7,0 231 - 0,0 0 1.021,0
06:19 6,4 4,9 5,8 90,0 7,0 231 10,7 0,0 0 1.021,1
06:18 6,4 4,9 5,8 90,0 7,2 231 - 0,0 0 1.021,1
06:17 6,4 4,9 5,8 90,0 7,2 232 - 0,0 0 1.021,1
06:16 6,4 4,9 5,8 90,0 7,2 232 10,7 0,0 0 1.021,0
06:15 6,4 4,9 5,8 90,0 7,2 232 10,3 0,0 0 1.021,0
06:14 6,4 4,9 5,8 90,0 7,1 232 - 0,0 0 1.021,1
06:13 6,4 4,9 5,8 90,0 7,1 232 - 0,0 0 1.021,1
06:12 6,4 4,9 5,8 90,0 7,0 232 - 0,0 0 1.021,0
06:11 6,4 4,9 5,8 90,0 6,8 232 10,3 0,0 0 1.021,0
06:10 6,4 4,9 5,8 90,0 6,8 231 12,1 0,0 0 1.021,0
06:09 6,4 4,9 5,8 90,0 6,9 230 - 0,0 0 1.021,1
06:08 6,4 4,9 5,8 90,0 6,9 230 - 0,0 0 1.021,1
06:07 6,3 4,8 5,7 90,0 7,0 229 10,3 0,0 0 1.021,1
06:06 6,3 4,8 5,7 90,0 7,1 228 - 0,0 0 1.021,1
06:05 6,3 4,8 5,7 90,0 7,2 227 - 0,0 0 1.021,1
06:04 6,3 4,8 5,7 90,0 7,1 226 - 0,0 0 1.021,2
06:03 6,3 4,8 5,7 90,0 7,0 226 10,7 0,0 0 1.021,2
06:02 6,3 4,8 5,7 90,0 6,9 225 - 0,0 0 1.021,2
06:01 6,3 4,8 5,7 90,0 6,9 225 - 0,0 0 1.021,2
06:00 6,3 4,8 5,7 90,0 6,9 225 10,7 0,0 0 1.021,1
 
05:59 6,3 4,8 5,7 90,0 7,0 225 10,7 0,0 0 1.021,1
05:58 6,3 4,8 5,7 90,0 7,3 225 - 0,0 0 1.021,2
05:57 6,3 4,8 5,7 90,0 7,6 226 - 0,0 0 1.021,2
05:56 6,3 4,8 5,7 90,0 7,7 226 - 0,0 0 1.021,2
05:55 6,3 4,8 5,7 89,9 7,6 226 10,7 0,0 0 1.021,3
05:54 6,3 4,6 5,7 89,0 7,5 227 - 0,0 0 1.021,2
05:53 6,3 4,6 5,7 89,0 7,4 227 - 0,0 0 1.021,3
05:52 6,3 4,6 5,7 89,0 7,3 227 11,2 0,0 0 1.021,2
05:51 6,3 4,6 5,7 89,0 7,2 227 10,3 0,0 0 1.021,2
05:50 6,3 4,6 5,7 89,0 7,2 227 - 0,0 0 1.021,2
05:49 6,2 4,5 5,6 89,0 7,2 227 - 0,0 0 1.021,3
05:48 6,2 4,5 5,6 89,0 7,2 227 10,3 0,0 0 1.021,2
05:47 6,2 4,5 5,6 89,0 7,0 226 - 0,0 0 1.021,2
05:46 6,2 4,5 5,6 89,0 6,9 226 10,3 0,0 0 1.021,2
05:45 6,2 4,5 5,6 89,0 6,9 225 - 0,0 0 1.021,3
05:44 6,2 4,5 5,6 89,0 6,8 225 - 0,0 0 1.021,3
05:43 6,2 4,5 5,6 89,0 6,8 224 10,3 0,0 0 1.021,3
05:42 6,2 4,5 5,6 89,0 6,7 223 10,7 0,0 0 1.021,3
05:41 6,2 4,5 5,6 89,0 6,7 222 - 0,0 0 1.021,3
05:40 6,2 4,5 5,6 89,0 6,7 221 - 0,0 0 1.021,3
05:39 6,2 4,5 5,6 89,0 6,6 221 9,8 0,0 0 1.021,3
05:38 6,2 4,5 5,6 89,0 6,5 221 - 0,0 0 1.021,3
05:37 6,2 4,5 5,6 89,0 6,5 221 9,8 0,0 0 1.021,4
05:36 6,2 4,5 5,6 89,0 6,3 221 9,8 0,0 0 1.021,4
05:35 6,2 4,5 5,6 89,0 6,3 220 - 0,0 0 1.021,4
05:34 6,2 4,5 5,6 89,0 6,2 220 - 0,0 0 1.021,4
05:33 6,2 4,5 5,6 89,0 6,3 221 - 0,0 0 1.021,4
05:32 6,2 4,5 5,6 89,0 6,5 221 - 0,0 0 1.021,4
05:31 6,2 4,5 5,6 89,0 6,6 221 - 0,0 0 1.021,4
05:30 6,2 4,5 5,6 89,0 6,7 221 12,1 0,0 0 1.021,4
05:29 6,2 4,5 5,6 89,0 6,7 222 - 0,0 0 1.021,5
05:28 6,2 4,5 5,6 89,0 6,7 222 9,8 0,0 0 1.021,5
05:27 6,2 4,5 5,6 89,0 6,6 223 - 0,0 0 1.021,5
05:26 6,2 4,5 5,6 89,0 6,6 224 - 0,0 0 1.021,5
05:25 6,2 4,5 5,6 89,0 6,7 225 - 0,0 0 1.021,5
05:24 - nan nan - - - - - - -
05:21 6,1 4,3 5,4 88,2 6,8 227 - 0,0 0 1.021,5
05:20 6,1 4,3 5,4 88,0 6,9 228 - 0,0 0 1.021,5
05:19 6,1 4,3 5,4 88,0 6,8 228 9,8 0,0 0 1.021,4
05:18 6,1 4,3 5,4 88,0 6,4 228 - 0,0 0 1.021,4
05:17 6,1 4,3 5,4 88,0 6,0 229 - 0,0 0 1.021,4
05:16 6,1 4,3 5,4 88,0 5,7 228 - 0,0 0 1.021,4
05:15 6,1 4,3 5,4 88,0 5,5 228 - 0,0 0 1.021,4
05:14 6,1 4,3 5,4 88,0 5,4 228 - 0,0 0 1.021,4
05:13 6,1 4,3 5,4 88,0 5,5 227 9,4 0,0 0 1.021,4
05:12 6,1 4,3 5,4 88,0 5,6 226 10,3 0,0 0 1.021,4
05:11 6,1 4,3 5,4 88,0 5,8 225 - 0,0 0 1.021,4
05:10 6,1 4,3 5,4 88,0 6,0 225 - 0,0 0 1.021,5
05:09 6,1 4,3 5,4 88,0 6,2 224 - 0,0 0 1.021,5
05:08 6,1 4,3 5,4 88,0 6,3 223 - 0,0 0 1.021,4
05:07 6,1 4,3 5,4 88,0 6,4 223 9,8 0,0 0 1.021,3
05:06 6,1 4,3 5,4 88,0 6,4 222 - 0,0 0 1.021,4
05:05 6,1 4,3 5,4 88,0 6,4 221 9,4 0,0 0 1.021,4
05:04 6,1 4,3 5,4 88,0 6,3 220 9,8 0,0 0 1.021,4
05:03 6,1 4,3 5,4 88,0 6,3 220 9,8 0,0 0 1.021,4
05:02 6,1 4,3 5,4 88,0 6,2 219 9,4 0,0 0 1.021,4
05:01 6,1 4,3 5,4 88,0 6,2 219 - 0,0 0 1.021,5
05:00 6,0 4,2 5,3 88,0 6,3 218 - 0,0 0 1.021,5
 
04:59 6,0 4,2 5,3 88,0 6,3 218 10,7 0,0 0 1.021,5
04:58 6,0 4,2 5,3 88,0 6,5 217 - 0,0 0 1.021,5
04:57 6,0 4,2 5,3 88,0 6,6 217 10,3 0,0 0 1.021,5
04:56 6,0 4,2 5,3 88,0 6,7 217 11,2 0,0 0 1.021,5
04:55 6,0 4,2 5,3 88,0 6,7 216 - 0,0 0 1.021,6
04:54 5,9 4,1 5,2 88,0 6,6 216 9,8 0,0 0 1.021,6
04:53 5,9 4,1 5,2 88,0 6,2 216 9,8 0,0 0 1.021,6
04:52 5,9 4,1 5,2 88,0 5,9 217 9,4 0,0 0 1.021,7
04:51 5,9 4,1 5,2 88,0 5,7 217 - 0,0 0 1.021,8
04:50 5,9 4,1 5,2 88,0 5,6 217 - 0,0 0 1.021,8
04:49 5,9 4,1 5,2 88,0 5,5 218 9,8 0,0 0 1.021,8
04:48 5,9 4,1 5,2 88,0 5,6 218 - 0,0 0 1.021,9
04:47 5,9 4,1 5,2 88,0 6,0 218 - 0,0 0 1.021,8
04:46 5,9 4,1 5,2 88,0 6,4 219 9,4 0,0 0 1.021,9
04:45 5,9 4,1 5,2 88,0 6,4 219 - 0,0 0 1.021,9
04:44 5,9 4,1 5,2 88,0 6,5 220 10,3 0,0 0 1.021,9
04:43 5,9 4,1 5,2 88,0 6,5 220 - 0,0 0 1.022,0
04:42 5,9 4,1 5,2 88,0 6,5 221 - 0,0 0 1.022,0
04:41 5,9 4,1 5,2 88,0 6,4 222 - 0,0 0 1.022,1
04:40 5,9 4,1 5,2 88,0 6,4 223 - 0,0 0 1.022,1
04:39 5,9 4,1 5,2 88,0 6,5 223 - 0,0 0 1.022,0
04:38 5,9 4,1 5,2 88,0 6,6 224 10,7 0,0 0 1.022,1
04:37 5,9 4,1 5,2 88,0 6,7 224 - 0,0 0 1.022,1
04:36 5,9 4,1 5,2 88,0 6,8 224 - 0,0 0 1.022,2
04:35 5,9 4,1 5,2 88,0 6,8 224 - 0,0 0 1.022,3
04:34 5,9 4,1 5,2 88,0 6,8 224 - 0,0 0 1.022,3
04:33 5,9 4,1 5,2 88,0 6,7 224 - 0,0 0 1.022,3
04:32 5,9 4,1 5,2 88,0 6,4 224 9,8 0,0 0 1.022,2
04:31 5,9 4,1 5,2 88,0 6,2 224 - 0,0 0 1.022,1
04:30 5,9 4,1 5,2 88,0 6,2 224 - 0,0 0 1.022,1
04:29 5,9 4,1 5,2 88,0 6,2 224 - 0,0 0 1.022,1
04:28 5,9 4,1 5,2 88,0 6,3 225 - 0,0 0 1.022,1
04:27 5,9 4,1 5,2 88,0 6,4 225 - 0,0 0 1.022,1
04:26 5,9 4,1 5,2 88,0 6,5 225 10,7 0,0 0 1.022,2
04:25 5,9 4,1 5,2 88,0 6,5 225 - 0,0 0 1.022,4
04:24 5,9 4,1 5,2 88,0 6,3 225 10,3 0,0 0 1.022,4
04:23 5,9 4,1 5,2 88,0 6,2 225 9,4 0,0 0 1.022,5
04:22 5,9 4,1 5,2 88,0 6,1 225 9,4 0,0 0 1.022,6
04:21 6,0 4,2 5,3 88,0 6,2 225 - 0,0 0 1.022,7
04:20 6,0 4,2 5,3 88,0 6,4 225 - 0,0 0 1.022,6
04:19 5,9 4,1 5,2 88,0 6,5 225 - 0,0 0 1.022,6
04:18 5,9 4,1 5,2 88,0 6,6 225 11,6 0,0 0 1.022,6
04:17 5,9 4,1 5,2 88,0 6,7 225 11,6 0,0 0 1.022,7
04:16 5,9 4,1 5,2 88,0 6,7 225 10,3 0,0 0 1.022,6
04:15 5,9 4,1 5,2 88,0 6,6 225 - 0,0 0 1.022,7
04:13 5,9 4,1 5,2 88,0 6,5 225 - 0,0 0 1.022,6
04:12 5,9 4,1 5,2 88,0 6,4 225 - 0,0 0 1.022,7
04:11 5,9 4,1 5,2 88,0 6,4 225 - 0,0 0 1.022,7
04:10 5,9 4,1 5,2 88,0 6,4 225 - 0,0 0 1.022,7
04:09 5,9 4,1 5,2 88,0 6,5 225 - 0,0 0 1.022,7
04:08 5,9 4,1 5,2 88,0 6,6 225 - 0,0 0 1.022,7
04:07 5,9 4,1 5,2 88,0 6,6 226 - 0,0 0 1.022,7
04:06 5,9 4,1 5,2 88,0 6,6 226 9,8 0,0 0 1.022,7
04:05 5,9 4,1 5,2 88,0 6,7 226 9,8 0,0 0 1.022,7
04:04 5,9 4,1 5,2 88,0 6,8 226 - 0,0 0 1.022,8
04:03 5,9 4,1 5,2 88,0 6,8 226 10,3 0,0 0 1.022,8
04:02 5,8 4,0 5,1 88,0 6,8 226 9,8 0,0 0 1.022,8
04:01 5,8 4,0 5,1 88,0 6,6 226 9,8 0,0 0 1.022,8
04:00 5,8 4,0 5,1 88,0 6,5 226 - 0,0 0 1.022,8
 
03:59 5,8 4,0 5,1 88,0 6,3 226 9,4 0,0 0 1.022,8
03:58 5,8 4,0 5,1 88,0 6,1 226 - 0,0 0 1.022,8
03:57 5,8 4,0 5,1 88,0 5,9 226 - 0,0 0 1.022,8
03:56 5,8 4,0 5,1 88,0 5,8 226 - 0,0 0 1.022,8
03:55 5,9 4,1 5,2 88,0 5,6 226 - 0,0 0 1.022,8
03:54 5,9 4,1 5,2 88,0 5,6 225 - 0,0 0 1.022,8
03:53 5,9 4,1 5,2 88,0 5,6 225 - 0,0 0 1.022,8
03:52 5,9 4,1 5,2 88,0 5,6 225 - 0,0 0 1.022,9
03:51 5,9 4,0 5,2 87,7 5,7 224 - 0,0 0 1.022,8
03:50 5,9 3,9 5,1 87,0 5,8 224 - 0,0 0 1.022,8
03:49 5,9 3,9 5,1 87,0 5,9 224 - 0,0 0 1.022,9
03:48 5,9 3,9 5,1 87,0 5,9 224 - 0,0 0 1.022,9
03:47 5,9 3,9 5,1 87,0 5,9 224 9,4 0,0 0 1.022,9
03:46 5,9 3,9 5,1 87,0 5,8 224 - 0,0 0 1.022,9
03:45 5,9 3,9 5,1 87,0 5,7 224 - 0,0 0 1.023,0
03:44 5,9 3,9 5,1 87,0 5,5 224 - 0,0 0 1.022,9
03:43 5,9 3,9 5,1 87,0 5,3 224 - 0,0 0 1.023,0
03:42 5,9 3,9 5,1 87,0 5,3 225 - 0,0 0 1.023,0
03:41 5,9 3,9 5,1 87,0 5,5 225 - 0,0 0 1.023,1
03:40 5,9 3,9 5,1 87,0 5,7 225 - 0,0 0 1.023,1
03:39 5,9 3,9 5,1 87,0 5,9 225 10,3 0,0 0 1.023,1
03:38 5,9 4,0 5,1 87,5 6,1 225 - 0,0 0 1.023,1
03:37 5,9 4,1 5,2 88,0 6,4 225 9,4 0,0 0 1.023,1
03:36 5,9 4,1 5,2 88,0 6,5 225 - 0,0 0 1.023,1
03:35 5,9 4,1 5,2 88,0 6,7 225 9,8 0,0 0 1.023,1
03:34 5,9 4,1 5,2 88,0 6,8 225 9,8 0,0 0 1.023,1
03:33 5,9 4,1 5,2 88,0 7,0 226 - 0,0 0 1.023,1
03:32 5,9 4,1 5,2 88,0 7,2 226 - 0,0 0 1.023,1
03:31 5,9 4,1 5,2 88,0 7,5 226 - 0,0 0 1.023,1
03:30 5,9 4,1 5,2 88,0 7,8 227 - 0,0 0 1.023,2
03:29 5,9 4,1 5,2 88,0 7,9 227 - 0,0 0 1.023,2
03:28 5,9 4,1 5,2 88,0 8,0 228 - 0,0 0 1.023,2
03:27 5,9 4,0 5,2 87,6 8,0 228 - 0,0 0 1.023,2
03:26 5,9 3,9 5,1 87,0 7,8 229 - 0,0 0 1.023,3
03:25 5,9 3,9 5,1 87,0 7,7 229 - 0,0 0 1.023,3
03:24 5,9 3,9 5,1 87,0 7,5 230 - 0,0 0 1.023,3
03:23 5,9 3,9 5,1 87,0 7,5 231 - 0,0 0 1.023,3
03:22 5,9 3,9 5,1 87,0 7,7 232 11,6 0,0 0 1.023,3
03:21 6,0 4,0 5,2 87,0 7,9 233 - 0,0 0 1.023,3
03:20 6,0 4,0 5,2 87,0 8,1 234 - 0,0 0 1.023,3
03:19 6,0 4,0 5,2 87,0 8,2 235 - 0,0 0 1.023,3
03:18 6,0 4,0 5,2 87,0 8,3 235 12,1 0,0 0 1.023,3
03:17 6,0 4,0 5,2 87,0 8,3 236 - 0,0 0 1.023,3
03:16 6,1 4,1 5,3 87,0 8,2 236 - 0,0 0 1.023,3
03:15 6,1 4,1 5,3 87,0 8,3 236 - 0,0 0 1.023,3
03:14 6,1 4,1 5,3 87,0 8,3 237 - 0,0 0 1.023,3
03:13 6,1 4,1 5,3 87,0 8,3 237 - 0,0 0 1.023,3
03:12 6,1 4,1 5,3 87,0 8,3 237 - 0,0 0 1.023,4
03:11 6,1 4,1 5,3 87,0 8,4 238 - 0,0 0 1.023,4
03:10 6,1 4,1 5,3 87,0 8,4 238 - 0,0 0 1.023,4
03:09 6,1 4,1 5,3 87,0 8,2 238 - 0,0 0 1.023,4
03:08 6,2 4,2 5,4 87,0 8,1 238 - 0,0 0 1.023,4
03:07 6,2 4,2 5,4 87,0 8,1 239 - 0,0 0 1.023,4
03:06 6,2 4,2 5,4 87,0 8,0 238 - 0,0 0 1.023,4
03:05 6,2 4,2 5,4 87,0 7,9 238 - 0,0 0 1.023,4
03:04 6,2 4,2 5,4 87,0 7,9 238 - 0,0 0 1.023,4
03:03 6,2 4,2 5,4 87,0 8,0 237 - 0,0 0 1.023,5
03:02 6,2 4,2 5,4 87,0 8,1 237 - 0,0 0 1.023,4
03:01 6,2 4,2 5,4 87,0 8,0 236 - 0,0 0 1.023,5
03:00 6,2 4,2 5,4 87,0 7,9 236 - 0,0 0 1.023,5
 
02:59 6,2 4,2 5,4 87,0 7,7 235 - 0,0 0 1.023,4
02:58 6,2 4,2 5,4 87,0 7,6 234 - 0,0 0 1.023,4
02:57 6,2 4,2 5,4 87,0 7,4 234 - 0,0 0 1.023,5
02:56 6,2 4,2 5,4 87,0 7,4 233 - 0,0 0 1.023,4
02:55 6,2 4,2 5,4 87,0 7,5 233 - 0,0 0 1.023,4
02:54 6,2 4,2 5,4 87,0 7,6 232 - 0,0 0 1.023,4
02:53 6,2 4,2 5,4 87,0 7,8 231 - 0,0 0 1.023,3
02:52 6,2 4,2 5,4 87,0 8,0 231 11,2 0,0 0 1.023,4
02:51 6,2 4,2 5,4 87,0 8,2 230 - 0,0 0 1.023,5
02:50 6,2 4,2 5,4 87,0 8,2 230 - 0,0 0 1.023,5
02:49 6,2 4,2 5,4 87,0 8,1 230 - 0,0 0 1.023,5
02:48 6,2 4,2 5,4 87,0 7,9 230 - 0,0 0 1.023,5
02:47 6,2 4,2 5,4 87,0 7,8 230 - 0,0 0 1.023,5
02:46 6,2 4,2 5,4 87,0 7,6 231 - 0,0 0 1.023,5
02:45 6,2 4,2 5,4 87,0 7,5 231 - 0,0 0 1.023,5
02:44 6,2 4,2 5,4 87,0 7,5 231 10,7 0,0 0 1.023,5
02:43 6,2 4,2 5,4 87,0 7,6 232 - 0,0 0 1.023,5
02:42 6,2 4,3 5,5 87,8 7,6 232 - 0,0 0 1.023,4
02:41 6,2 4,2 5,4 87,0 7,6 232 10,7 0,0 0 1.023,4
02:40 6,2 4,3 5,5 87,5 7,5 231 11,6 0,0 0 1.023,4
02:39 6,2 4,4 5,5 88,0 7,4 231 - 0,0 0 1.023,5
02:38 6,2 4,4 5,5 88,0 7,2 231 - 0,0 0 1.023,5
02:37 6,2 4,4 5,5 88,0 7,0 231 - 0,0 0 1.023,4
02:36 6,1 4,3 5,4 88,0 6,7 231 10,7 0,0 0 1.023,3
02:35 6,1 4,3 5,4 88,0 6,6 230 - 0,0 0 1.023,3
02:34 6,1 4,3 5,4 88,0 6,7 230 - 0,0 0 1.023,4
02:33 6,1 4,3 5,4 88,0 6,8 230 - 0,0 0 1.023,4
02:32 6,1 4,3 5,4 88,0 7,0 230 - 0,0 0 1.023,4
02:31 6,1 4,3 5,4 88,0 7,2 229 - 0,0 0 1.023,5
02:30 6,1 4,3 5,4 88,0 7,5 229 - 0,0 0 1.023,5
02:29 6,1 4,2 5,4 87,7 7,7 229 - 0,0 0 1.023,5
02:28 6,1 4,1 5,3 87,0 7,9 229 - 0,0 0 1.023,5
02:27 6,1 4,1 5,3 87,0 8,1 230 - 0,0 0 1.023,4
02:26 6,2 4,2 5,4 87,0 8,2 230 - 0,0 0 1.023,5
02:25 6,2 4,2 5,4 87,0 8,3 231 - 0,0 0 1.023,5
02:24 6,2 4,2 5,4 87,2 8,3 231 - 0,0 0 1.023,5
02:23 6,2 4,3 5,5 87,7 8,4 232 - 0,0 0 1.023,5
02:22 6,2 4,2 5,4 87,0 8,4 232 - 0,0 0 1.023,5
02:21 6,2 4,3 5,5 87,7 8,5 233 - 0,0 0 1.023,5
02:20 6,2 4,4 5,5 88,0 8,5 234 - 0,0 0 1.023,4
02:19 6,2 4,4 5,5 88,0 8,6 234 11,6 0,0 0 1.023,3
02:18 6,2 4,4 5,5 88,0 8,6 235 - 0,0 0 1.023,3
02:17 6,1 4,3 5,4 88,0 8,5 235 12,5 0,0 0 1.023,4
02:16 6,1 4,3 5,4 88,5 8,5 235 12,5 0,0 0 1.023,4
02:15 6,1 4,3 5,4 88,4 8,5 235 - 0,0 0 1.023,4
02:14 6,1 4,4 5,5 88,8 8,5 235 11,6 0,0 0 1.023,4
02:13 6,0 4,3 5,4 89,0 8,4 235 11,6 0,0 0 1.023,3
02:12 6,0 4,3 5,4 89,0 8,3 234 12,1 0,0 0 1.023,5
02:11 5,9 4,2 5,3 89,0 8,1 234 11,6 0,0 0 1.023,5
02:10 5,9 4,2 5,3 89,0 7,8 233 11,6 0,0 0 1.023,6
02:09 5,8 4,1 5,2 89,0 7,4 232 - 0,0 0 1.023,6
02:08 5,8 4,1 5,2 89,0 6,8 231 - 0,0 0 1.023,6
02:07 5,8 4,1 5,2 89,0 6,4 230 - 0,0 0 1.023,7
02:06 5,8 4,1 5,2 89,0 6,0 229 - 0,0 0 1.023,7
02:05 5,8 4,1 5,2 89,0 5,6 228 - 0,0 0 1.023,7
02:04 5,8 4,1 5,2 89,0 5,3 226 - 0,0 0 1.023,7
02:03 5,8 4,1 5,2 89,0 5,1 225 - 0,0 0 1.023,7
02:02 5,8 4,1 5,2 89,0 5,1 224 - 0,0 0 1.023,8
02:01 5,8 4,1 5,2 89,0 5,2 224 - 0,0 0 1.023,8
02:00 5,8 4,1 5,2 89,0 5,4 224 - 0,0 0 1.023,9
 
01:59 5,8 4,1 5,2 89,0 5,6 225 - 0,0 0 1.023,9
01:58 5,9 4,2 5,3 89,0 5,7 226 - 0,0 0 1.024,0
01:57 5,9 4,2 5,3 89,0 5,9 227 - 0,0 0 1.024,0
01:56 5,9 4,2 5,3 89,0 6,0 228 - 0,0 0 1.024,1
01:55 5,9 4,2 5,3 89,0 6,2 229 - 0,0 0 1.024,1
01:54 5,9 4,2 5,3 89,0 6,5 230 - 0,0 0 1.024,1
01:53 5,9 4,2 5,3 89,0 7,0 231 - 0,0 0 1.024,1
01:52 5,9 4,2 5,3 89,0 7,6 232 - 0,0 0 1.024,0
01:51 5,9 4,2 5,3 89,0 8,2 233 - 0,0 0 1.024,0
01:50 5,9 4,2 5,3 89,0 8,6 234 - 0,0 0 1.024,1
01:49 5,9 4,2 5,3 89,0 8,8 234 - 0,0 0 1.024,1
01:48 5,9 4,2 5,3 89,0 8,7 235 - 0,0 0 1.024,1
01:47 5,9 4,2 5,3 89,0 8,4 236 - 0,0 0 1.024,1
01:46 5,9 4,2 5,3 89,0 8,0 237 - 0,0 0 1.024,1
01:45 5,9 4,2 5,3 89,0 7,7 237 - 0,0 0 1.024,3
01:44 5,8 4,1 5,2 89,0 7,4 238 - 0,0 0 1.024,4
01:43 5,8 4,1 5,2 89,0 7,2 238 - 0,0 0 1.024,4
01:42 5,8 4,1 5,2 89,0 6,9 237 - 0,0 0 1.024,4
01:41 5,8 4,1 5,2 89,0 6,7 237 - 0,0 0 1.024,4
01:40 5,8 4,1 5,2 89,0 6,6 236 - 0,0 0 1.024,3
01:39 5,8 4,1 5,2 89,0 6,4 235 - 0,0 0 1.024,4
01:38 5,8 4,1 5,2 89,0 6,3 234 - 0,0 0 1.024,4
01:37 5,8 4,1 5,2 89,0 6,2 233 - 0,0 0 1.024,4
01:36 5,8 4,1 5,2 89,0 6,2 232 - 0,0 0 1.024,4
01:35 5,8 4,1 5,2 89,0 6,1 231 - 0,0 0 1.024,3
01:34 5,7 4,0 5,1 89,0 6,1 230 - 0,0 0 1.024,3
01:33 5,8 4,1 5,2 89,0 6,0 230 9,8 0,0 0 1.024,2
01:32 5,7 4,0 5,1 89,0 6,0 229 9,4 0,0 0 1.024,3
01:31 5,8 4,1 5,2 89,0 6,1 228 - 0,0 0 1.024,4
01:30 5,7 4,0 5,1 89,0 6,1 228 - 0,0 0 1.024,5
01:29 5,7 4,0 5,1 89,0 6,0 227 - 0,0 0 1.024,5
01:28 5,7 4,0 5,1 89,0 6,1 226 - 0,0 0 1.024,6
01:27 5,7 4,0 5,1 89,0 6,1 225 - 0,0 0 1.024,6
01:26 5,7 4,0 5,1 89,0 6,0 224 - 0,0 0 1.024,6
01:25 5,7 4,0 5,1 89,0 5,8 224 - 0,0 0 1.024,6
01:24 5,7 4,0 5,1 89,0 5,6 223 - 0,0 0 1.024,7
01:23 5,7 4,0 5,1 89,0 5,5 223 - 0,0 0 1.024,7
01:22 5,7 4,0 5,1 89,0 5,4 222 - 0,0 0 1.024,7
01:21 5,7 4,0 5,1 89,0 5,3 222 - 0,0 0 1.024,7
01:20 5,7 4,0 5,1 89,0 5,3 222 - 0,0 0 1.024,7
01:19 5,7 4,0 5,1 89,0 5,3 222 - 0,0 0 1.024,6
01:18 5,7 4,0 5,1 89,0 5,4 221 - 0,0 0 1.024,6
01:17 5,7 4,0 5,1 89,0 5,4 221 - 0,0 0 1.024,6
01:16 5,7 4,0 5,1 89,0 5,4 221 9,4 0,0 0 1.024,5
01:15 5,7 4,0 5,1 89,0 5,4 221 - 0,0 0 1.024,5
01:14 5,7 4,0 5,1 89,0 5,3 220 - 0,0 0 1.024,6
01:13 5,7 4,0 5,1 89,0 5,3 220 - 0,0 0 1.024,6
01:12 5,7 4,0 5,1 89,0 5,2 220 - 0,0 0 1.024,6
01:11 5,7 4,0 5,1 89,0 5,2 220 - 0,0 0 1.024,7
01:10 5,7 4,0 5,1 89,0 5,2 220 - 0,0 0 1.024,7
01:09 5,7 4,0 5,1 89,0 5,2 220 - 0,0 0 1.024,7
01:08 5,7 4,0 5,1 89,0 5,2 220 - 0,0 0 1.024,7
01:07 5,7 4,0 5,1 89,0 5,4 220 - 0,0 0 1.024,8
01:06 5,7 4,0 5,1 89,0 5,4 220 - 0,0 0 1.024,8
01:05 5,7 4,0 5,1 89,0 5,5 220 - 0,0 0 1.024,8
01:04 5,7 4,0 5,1 89,0 5,5 221 - 0,0 0 1.024,8
01:03 5,7 4,0 5,1 89,0 5,6 221 - 0,0 0 1.024,8
01:02 5,7 4,0 5,1 89,0 5,6 221 - 0,0 0 1.024,8
01:01 5,7 4,0 5,1 89,0 5,6 221 - 0,0 0 1.024,8
01:00 5,7 4,0 5,1 89,0 5,6 221 9,4 0,0 0 1.024,8
 
00:59 5,7 4,0 5,1 89,0 5,6 222 - 0,0 0 1.024,7
00:58 5,7 4,0 5,1 89,0 5,5 222 - 0,0 0 1.024,7
00:57 5,7 4,0 5,1 89,0 5,4 222 - 0,0 0 1.024,7
00:56 5,7 4,0 5,1 89,0 5,3 222 - 0,0 0 1.024,7
00:55 5,7 4,0 5,1 89,0 5,3 222 - 0,0 0 1.024,7
00:54 5,7 4,0 5,1 89,0 5,3 222 - 0,0 0 1.024,7
00:53 5,7 4,0 5,1 89,0 5,3 222 - 0,0 0 1.024,8
00:52 5,7 4,0 5,1 89,0 5,3 222 - 0,0 0 1.024,8
00:51 5,7 4,0 5,1 89,0 5,3 222 - 0,0 0 1.024,8
00:50 5,7 4,0 5,1 89,0 5,3 222 - 0,0 0 1.024,8
00:49 5,7 4,0 5,1 89,0 5,2 222 - 0,0 0 1.024,8
00:48 5,7 4,0 5,1 89,0 5,2 223 - 0,0 0 1.024,8
00:47 5,7 4,0 5,1 89,0 5,3 223 - 0,0 0 1.024,9
00:46 5,7 4,0 5,1 89,0 5,4 222 - 0,0 0 1.024,9
00:45 5,7 4,0 5,1 89,0 5,4 222 - 0,0 0 1.025,0
00:44 5,7 4,0 5,1 89,0 5,4 222 - 0,0 0 1.025,0
00:43 5,7 4,0 5,1 89,0 5,4 221 - 0,0 0 1.025,1
00:42 5,7 4,0 5,1 89,0 5,3 220 - 0,0 0 1.025,0
00:41 5,7 4,0 5,1 89,0 5,3 220 - 0,0 0 1.025,0
00:40 5,7 4,0 5,1 89,0 5,3 220 - 0,0 0 1.025,0
00:39 5,7 4,0 5,1 89,0 5,4 220 - 0,0 0 1.025,0
00:38 5,7 4,0 5,1 89,0 5,4 220 - 0,0 0 1.025,0
00:37 5,7 4,0 5,1 89,0 5,4 221 9,8 0,0 0 1.025,0
00:36 5,7 4,0 5,1 89,0 5,5 221 - 0,0 0 1.025,0
00:35 5,7 4,0 5,1 89,0 5,6 222 - 0,0 0 1.025,1
00:34 5,7 4,0 5,1 89,0 5,5 222 - 0,0 0 1.025,1
00:33 5,7 4,0 5,1 89,0 5,3 222 - 0,0 0 1.025,1
00:32 5,7 4,0 5,1 89,0 5,2 222 - 0,0 0 1.025,0
00:31 5,7 4,0 5,1 89,0 5,1 222 - 0,0 0 1.025,1
00:30 5,7 4,0 5,1 89,0 5,2 223 - 0,0 0 1.025,1
00:29 5,7 4,0 5,1 89,0 5,3 223 - 0,0 0 1.025,1
00:28 5,7 4,0 5,1 89,0 5,4 223 - 0,0 0 1.025,1
00:27 5,7 4,0 5,1 89,0 5,4 224 9,8 0,0 0 1.025,0
00:26 5,7 4,0 5,1 89,0 5,4 224 - 0,0 0 1.025,1
00:25 5,7 4,0 5,1 89,0 5,4 225 - 0,0 0 1.025,0
00:24 5,7 4,0 5,1 89,0 5,4 226 - 0,0 0 1.025,0
00:23 5,7 4,0 5,1 89,0 5,3 226 - 0,0 0 1.025,0
00:22 5,7 4,0 5,1 89,0 5,3 226 - 0,0 0 1.025,0
00:21 5,7 4,0 5,1 89,0 5,4 225 - 0,0 0 1.025,0
00:20 5,7 4,0 5,1 89,0 5,5 225 - 0,0 0 1.025,0
00:19 5,7 4,0 5,1 89,0 5,5 224 - 0,0 0 1.025,0
00:18 5,7 4,0 5,1 89,0 5,5 224 10,3 0,0 0 1.025,0
00:17 5,7 4,0 5,1 89,0 5,4 223 10,3 0,0 0 1.025,0
00:16 5,7 4,2 5,1 90,0 5,4 223 - 0,0 0 1.025,1
00:15 5,7 4,2 5,1 90,0 5,3 223 - 0,0 0 1.025,1
00:14 5,7 4,2 5,1 90,0 5,3 223 - 0,0 0 1.025,1
00:13 5,7 4,2 5,1 90,0 5,4 222 - 0,0 0 1.025,2
00:12 5,7 4,2 5,1 90,0 5,5 223 - 0,0 0 1.025,1
00:11 5,7 4,2 5,1 90,0 5,6 223 - 0,0 0 1.025,2
00:10 5,7 4,2 5,1 90,0 5,5 223 10,7 0,0 0 1.025,2
00:09 5,7 4,2 5,1 90,0 5,5 223 - 0,0 0 1.025,2
00:08 5,7 4,2 5,1 90,0 5,5 223 - 0,0 0 1.025,2
00:07 5,7 4,2 5,1 90,0 5,4 224 - 0,0 0 1.025,2
00:06 5,7 4,2 5,1 90,0 5,4 224 - 0,0 0 1.025,2
00:05 5,7 4,2 5,1 90,0 5,5 224 - 0,0 0 1.025,2
00:04 5,6 4,1 5,0 90,0 5,6 225 - 0,0 0 1.025,3
00:03 5,6 4,1 5,0 90,0 5,8 225 - 0,0 0 1.025,2
00:02 5,7 4,2 5,1 90,0 6,0 226 9,4 0,0 0 1.025,3
00:01 5,6 4,1 5,0 90,0 6,2 226 - 0,0 0 1.025,3
00:00 5,6 4,1 5,0 90,0 6,3 226 - 0,0 0 1.025,3
 
23:59 5,6 4,1 5,0 90,0 6,4 226 10,3 0,0 0 1.025,4
23:58 5,6 4,1 5,0 90,0 6,5 226 - 0,0 0 1.025,4
23:57 5,6 4,1 5,1 90,3 6,7 226 - 0,0 0 1.025,4
23:56 5,6 4,2 5,1 91,0 6,8 226 10,3 0,0 0 1.025,4
23:55 5,5 4,1 5,0 91,0 6,9 226 - 0,0 0 1.025,5
23:54 5,5 4,1 5,0 91,0 7,0 225 - 0,0 0 1.025,5
23:53 5,5 4,1 5,0 91,0 7,1 225 - 0,0 0 1.025,5
23:52 5,5 4,1 5,0 91,0 7,1 225 - 0,0 0 1.025,6
23:51 5,4 4,0 4,9 91,0 6,9 225 - 0,0 0 1.025,6
23:50 5,4 4,0 4,9 91,0 6,8 225 - 0,0 0 1.025,7
23:49 5,4 4,0 4,9 91,0 6,6 226 - 0,0 0 1.025,7
23:48 5,4 4,0 4,9 91,0 6,6 226 - 0,0 0 1.025,7
23:47 5,4 4,0 4,9 91,0 6,5 226 - 0,0 0 1.025,7
23:46 5,3 3,9 4,8 91,0 6,5 226 - 0,0 0 1.025,7
23:45 5,3 3,9 4,8 91,0 6,5 226 - 0,0 0 1.025,7
23:44 5,3 3,9 4,8 91,0 6,6 226 - 0,0 0 1.025,7
23:43 5,3 3,9 4,8 91,0 6,6 226 - 0,0 0 1.025,8
23:42 5,3 3,9 4,8 91,0 6,5 226 - 0,0 0 1.025,8
23:41 5,3 3,9 4,8 91,0 6,4 226 9,8 0,0 0 1.025,9
23:40 5,3 3,9 4,8 91,0 6,1 225 - 0,0 0 1.025,9
23:39 5,2 3,9 4,7 91,0 5,9 225 - 0,0 0 1.025,9
23:38 5,2 3,9 4,7 91,0 5,7 225 - 0,0 0 1.025,9
23:37 5,2 3,9 4,7 91,0 5,5 225 - 0,0 0 1.025,9
23:36 5,2 3,9 4,7 91,0 5,4 225 - 0,0 0 1.026,0
23:35 5,2 3,9 4,7 91,0 5,3 225 - 0,0 0 1.026,0
23:34 5,2 3,9 4,7 91,0 5,4 224 - 0,0 0 1.026,0
23:33 5,2 3,9 4,7 91,0 5,4 224 - 0,0 0 1.026,0
23:32 5,2 3,9 4,7 91,0 5,5 224 - 0,0 0 1.026,0
23:31 5,2 3,9 4,7 91,0 5,6 224 - 0,0 0 1.026,0
23:30 5,2 3,9 4,7 91,0 5,6 223 - 0,0 0 1.026,1
23:29 5,2 3,9 4,7 91,0 5,5 223 - 0,0 0 1.026,1
23:28 5,2 3,9 4,7 91,0 5,4 223 - 0,0 0 1.026,1
23:27 5,2 3,9 4,7 91,0 5,3 223 - 0,0 0 1.026,1
23:26 5,2 3,9 4,7 91,0 5,2 223 - 0,0 0 1.026,2
23:25 5,2 3,9 4,7 91,0 5,1 222 - 0,0 0 1.026,2
23:24 5,2 3,9 4,7 91,0 5,1 222 - 0,0 0 1.026,2
23:23 5,2 3,9 4,7 91,0 5,1 222 - 0,0 0 1.026,2
23:22 5,2 3,9 4,7 91,0 5,0 221 - 0,0 0 1.026,2
23:21 5,1 3,8 4,6 91,0 4,8 220 - 0,0 0 1.026,2
23:20 5,1 3,8 4,6 91,0 4,6 220 - 0,0 0 1.026,2
23:19 5,1 3,8 4,6 91,0 4,5 219 - 0,0 0 1.026,2
23:18 5,1 3,8 4,6 91,0 4,6 218 - 0,0 0 1.026,2
23:17 5,1 3,8 4,6 91,0 4,6 217 - 0,0 0 1.026,2
23:16 5,1 3,8 4,6 91,0 4,7 216 - 0,0 0 1.026,2
23:15 5,1 3,8 4,6 91,0 4,7 215 - 0,0 0 1.026,2
23:14 5,1 3,8 4,6 91,0 4,7 213 - 0,0 0 1.026,2
23:13 5,1 3,8 4,6 91,0 4,6 212 - 0,0 0 1.026,3
23:12 5,1 3,8 4,6 91,0 4,6 211 - 0,0 0 1.026,3
23:11 5,1 3,8 4,6 91,0 4,5 210 - 0,0 0 1.026,3
23:10 5,1 3,8 4,6 91,0 4,6 209 - 0,0 0 1.026,3
23:09 5,1 3,8 4,6 91,0 4,6 209 - 0,0 0 1.026,3
23:08 5,1 3,8 4,6 91,0 4,6 209 - 0,0 0 1.026,3
23:07 5,1 3,8 4,6 91,0 4,5 209 - 0,0 0 1.026,3
23:06 5,1 3,8 4,6 91,0 4,5 209 - 0,0 0 1.026,4
23:05 5,1 3,8 4,6 91,0 4,4 209 - 0,0 0 1.026,4
23:04 5,1 3,8 4,6 91,0 4,4 210 - 0,0 0 1.026,4
23:03 5,1 3,8 4,6 91,0 4,5 211 - 0,0 0 1.026,4
23:02 5,1 3,8 4,6 91,0 4,6 211 - 0,0 0 1.026,4
23:01 5,1 3,8 4,6 91,0 4,7 212 - 0,0 0 1.026,4
23:00 5,1 3,8 4,6 91,0 4,7 213 - 0,0 0 1.026,4
 
22:59 5,1 3,8 4,6 91,0 4,7 214 - 0,0 0 1.026,4
22:58 5,1 3,8 4,6 91,0 4,7 214 - 0,0 0 1.026,4
22:57 5,1 3,8 4,6 91,0 4,6 215 - 0,0 0 1.026,4
22:56 5,1 3,8 4,6 91,0 4,4 216 - 0,0 0 1.026,4
22:55 5,1 3,8 4,6 91,0 4,4 217 - 0,0 0 1.026,4
22:54 5,1 3,8 4,6 91,0 4,5 217 - 0,0 0 1.026,5
22:53 5,1 3,8 4,6 91,0 4,7 218 - 0,0 0 1.026,4
22:52 5,1 3,8 4,6 91,0 4,8 218 - 0,0 0 1.026,5
22:51 5,1 3,8 4,6 91,0 5,0 219 - 0,0 0 1.026,5
22:50 5,1 3,8 4,6 91,0 5,0 219 - 0,0 0 1.026,6
22:49 5,1 3,8 4,6 91,0 5,1 220 - 0,0 0 1.026,6
22:48 5,1 3,8 4,6 91,0 5,1 220 - 0,0 0 1.026,6
22:47 5,1 3,8 4,6 91,0 5,0 220 - 0,0 0 1.026,7
22:46 5,1 3,8 4,6 91,0 4,9 220 - 0,0 0 1.026,7
22:45 5,1 3,8 4,6 91,0 4,9 221 - 0,0 0 1.026,7
22:44 5,1 3,8 4,6 91,0 4,9 221 - 0,0 0 1.026,7
22:43 5,1 3,8 4,6 91,0 4,9 221 - 0,0 0 1.026,7
22:42 5,1 3,8 4,6 91,0 4,8 221 - 0,0 0 1.026,7
22:41 5,1 3,8 4,6 91,0 4,7 220 - 0,0 0 1.026,7
22:40 5,1 3,8 4,6 91,0 4,6 220 - 0,0 0 1.026,7
22:39 5,1 3,8 4,6 91,0 4,6 220 - 0,0 0 1.026,6
22:38 5,1 3,8 4,6 91,0 4,7 220 - 0,0 0 1.026,6
22:37 5,1 3,8 4,6 91,0 4,7 220 - 0,0 0 1.026,6
22:36 5,1 3,8 4,6 91,0 4,7 220 - 0,0 0 1.026,6
22:35 5,1 3,8 4,6 91,0 4,8 220 - 0,0 0 1.026,6
22:34 5,1 3,8 4,6 91,0 4,8 220 - 0,0 0 1.026,6
22:33 5,1 3,8 4,6 91,0 4,9 220 - 0,0 0 1.026,6
22:32 5,1 3,8 4,6 91,0 4,9 220 - 0,0 0 1.026,6
22:31 5,1 3,8 4,6 91,0 5,0 220 - 0,0 0 1.026,6
22:30 5,1 3,8 4,6 91,0 5,1 220 - 0,0 0 1.026,6
22:29 5,1 3,8 4,6 91,0 5,2 220 - 0,0 0 1.026,7
22:28 5,1 3,8 4,6 91,0 5,3 220 - 0,0 0 1.026,7
22:27 5,1 3,8 4,6 91,0 5,4 221 - 0,0 0 1.026,7
22:26 5,1 3,8 4,6 91,0 5,3 221 - 0,0 0 1.026,8
22:25 5,1 3,8 4,6 91,0 5,3 221 - 0,0 0 1.026,8
22:24 5,2 3,9 4,7 91,0 5,2 221 - 0,0 0 1.026,8
22:23 5,1 3,8 4,6 91,0 5,1 222 - 0,0 0 1.026,8
22:22 5,2 3,9 4,7 91,0 5,1 222 - 0,0 0 1.026,9
22:21 5,2 3,9 4,7 91,0 5,1 223 - 0,0 0 1.026,8
22:20 5,2 3,9 4,7 91,0 5,2 223 - 0,0 0 1.026,9
22:19 5,2 3,9 4,7 91,0 5,4 224 - 0,0 0 1.026,9
22:18 5,2 3,9 4,7 91,0 5,5 225 - 0,0 0 1.026,9
22:17 5,2 3,9 4,7 91,0 5,7 225 - 0,0 0 1.026,9
22:16 5,2 3,9 4,7 91,0 5,9 225 - 0,0 0 1.026,9
22:15 5,2 3,9 4,7 91,0 5,9 226 - 0,0 0 1.026,9
22:14 5,2 3,9 4,7 91,0 5,9 226 - 0,0 0 1.027,0
22:13 5,2 3,9 4,7 91,0 5,8 226 - 0,0 0 1.027,0
22:12 5,2 3,9 4,7 91,0 5,7 226 - 0,0 0 1.027,0
22:11 5,2 3,9 4,7 91,0 5,6 226 - 0,0 0 1.027,0
22:10 5,2 3,9 4,7 91,0 5,5 226 - 0,0 0 1.027,0
22:09 5,2 3,9 4,7 91,0 5,3 226 - 0,0 0 1.027,0
22:08 5,2 3,9 4,7 91,0 5,3 226 - 0,0 0 1.027,0
22:07 5,2 3,9 4,7 91,0 5,3 226 - 0,0 0 1.027,0
22:06 5,2 3,9 4,7 91,0 5,3 226 - 0,0 0 1.027,0
22:05 5,2 3,9 4,7 91,0 5,2 225 - 0,0 0 1.026,9
22:04 5,2 3,9 4,7 91,0 5,2 225 - 0,0 0 1.026,9
22:03 5,2 3,9 4,7 91,0 5,1 224 - 0,0 0 1.026,9
22:02 5,2 3,9 4,7 91,0 5,2 224 - 0,0 0 1.026,9
22:01 5,2 3,9 4,7 91,0 5,2 223 - 0,0 0 1.026,9
22:00 5,2 3,9 4,7 91,0 5,1 222 - 0,0 0 1.026,9
 
21:59 5,2 3,9 4,7 91,4 5,2 221 - 0,0 0 1.026,9
21:58 5,2 4,0 4,8 92,0 5,3 221 - 0,0 0 1.026,9
21:57 5,2 4,0 4,8 92,0 5,5 220 - 0,0 0 1.026,9
21:56 5,2 4,0 4,8 92,0 5,4 220 - 0,0 0 1.026,9
21:55 5,2 4,0 4,8 92,0 5,3 219 - 0,0 0 1.026,9
21:54 5,2 4,0 4,8 91,7 5,4 219 - 0,0 0 1.026,9
21:53 5,2 3,9 4,7 91,0 5,4 219 - 0,0 0 1.026,8
21:52 5,2 3,9 4,7 91,0 5,2 219 - 0,0 0 1.026,8
21:51 5,2 3,9 4,7 91,0 5,0 218 - 0,0 0 1.026,8
21:50 5,2 3,9 4,7 91,0 4,8 218 - 0,0 0 1.026,8
21:49 5,2 3,9 4,7 91,0 4,7 218 - 0,0 0 1.026,8
21:48 5,2 3,9 4,7 91,0 4,6 217 - 0,0 0 1.026,8
21:47 5,2 3,9 4,7 91,0 4,6 217 - 0,0 0 1.026,8
21:46 5,2 3,9 4,7 91,0 4,7 217 - 0,0 0 1.026,8
21:45 5,2 3,9 4,7 91,0 4,8 216 - 0,0 0 1.026,8
21:44 5,2 4,0 4,8 91,9 5,1 216 9,4 0,0 0 1.026,8
21:43 5,2 3,9 4,7 91,0 5,3 216 - 0,0 0 1.026,8
21:42 5,2 3,9 4,7 91,0 5,5 216 - 0,0 0 1.026,8
21:41 5,2 3,9 4,7 91,0 5,6 215 9,4 0,0 0 1.026,8
21:40 5,2 3,9 4,7 91,0 5,6 215 - 0,0 0 1.026,8
21:39 5,2 3,9 4,7 91,0 5,6 215 - 0,0 0 1.026,8
21:38 5,2 3,9 4,7 91,0 5,5 215 - 0,0 0 1.026,8
21:37 5,2 3,9 4,7 91,0 5,5 215 - 0,0 0 1.026,8
21:36 5,2 3,9 4,7 91,0 5,6 215 9,4 0,0 0 1.026,8
21:35 5,2 3,9 4,7 91,0 5,6 215 - 0,0 0 1.026,8
21:34 5,2 3,9 4,7 91,0 5,5 215 10,3 0,0 0 1.026,9
21:33 5,2 3,9 4,7 91,0 5,3 215 11,2 0,0 0 1.026,9
21:32 5,2 3,9 4,7 91,0 5,1 215 9,4 0,0 0 1.026,9
21:31 5,2 3,9 4,7 91,0 4,9 215 - 0,0 0 1.026,9
21:30 5,2 3,9 4,7 91,4 4,7 215 - 0,0 0 1.027,0
21:29 5,2 4,0 4,8 92,0 4,5 215 - 0,0 0 1.027,0
21:28 5,2 4,0 4,8 92,0 4,4 216 - 0,0 0 1.027,0
21:27 5,2 4,0 4,8 92,0 4,4 216 - 0,0 0 1.027,0
21:26 5,2 4,0 4,8 92,0 4,5 217 - 0,0 0 1.027,0
21:25 5,2 4,0 4,8 92,0 4,5 217 - 0,0 0 1.027,0
21:24 5,2 4,0 4,8 92,0 4,5 218 - 0,0 0 1.027,0
21:23 5,2 4,0 4,8 92,0 4,6 219 - 0,0 0 1.027,0
21:22 5,2 4,0 4,8 92,0 4,7 219 - 0,0 0 1.027,0
21:21 5,2 4,0 4,8 92,0 4,7 220 - 0,0 0 1.027,0
21:20 5,2 4,0 4,8 92,0 4,7 220 - 0,0 0 1.027,0
21:19 5,2 4,0 4,8 92,0 4,7 221 - 0,0 0 1.027,0
21:18 5,2 4,0 4,8 92,0 4,8 221 - 0,0 0 1.027,1
21:17 5,2 4,0 4,8 92,0 4,9 221 - 0,0 0 1.027,0
21:16 5,2 4,0 4,8 92,0 4,9 221 - 0,0 0 1.027,1
21:15 5,2 4,0 4,8 92,0 4,8 222 - 0,0 0 1.027,0
21:14 5,2 4,0 4,8 92,0 4,7 222 - 0,0 0 1.027,1
21:13 5,2 4,0 4,8 92,0 4,7 221 - 0,0 0 1.027,0
21:12 5,2 4,0 4,8 92,0 4,6 221 - 0,0 0 1.027,0
21:11 5,2 4,0 4,8 92,0 4,6 221 - 0,0 0 1.027,1
21:10 5,2 4,0 4,8 92,0 4,5 220 - 0,0 0 1.027,1
21:09 5,2 4,0 4,8 92,0 4,5 220 - 0,0 0 1.027,1
21:08 5,2 4,0 4,8 92,0 4,5 219 - 0,0 0 1.027,0
21:07 5,2 4,0 4,8 92,0 4,5 219 - 0,0 0 1.027,1
21:06 5,1 3,9 4,7 92,0 4,4 218 - 0,0 0 1.027,1
21:05 5,2 4,0 4,8 92,0 4,3 217 - 0,0 0 1.027,1
21:04 5,2 4,0 4,8 92,0 4,3 217 - 0,0 0 1.027,1
21:03 5,1 3,9 4,7 92,0 4,3 216 - 0,0 0 1.027,1
21:02 5,1 3,9 4,7 92,0 4,3 215 - 0,0 0 1.027,1
21:01 5,1 3,9 4,7 92,0 4,3 214 - 0,0 0 1.027,1
21:00 5,1 3,9 4,7 92,0 4,2 214 - 0,0 0 1.027,1
 
20:59 5,1 3,9 4,7 92,0 4,2 213 - 0,0 0 1.027,2
20:58 5,1 3,9 4,7 92,0 4,1 213 - 0,0 0 1.027,2
20:57 5,1 3,9 4,7 92,0 4,0 212 - 0,0 0 1.027,2
20:56 5,1 3,9 4,7 92,0 4,0 212 - 0,0 0 1.027,2
20:55 5,1 3,9 4,7 92,0 4,1 212 - 0,0 0 1.027,3
20:54 5,1 3,9 4,7 92,0 4,2 212 - 0,0 0 1.027,3
20:53 5,1 3,9 4,7 92,0 4,3 213 - 0,0 0 1.027,3
20:52 5,1 3,9 4,7 92,0 4,3 213 - 0,0 0 1.027,3
20:51 5,1 3,9 4,7 92,0 4,4 213 - 0,0 0 1.027,2
20:50 5,1 3,9 4,7 92,0 4,5 213 - 0,0 0 1.027,3
20:49 5,1 3,9 4,7 92,0 4,6 213 - 0,0 0 1.027,3
20:48 5,1 3,9 4,7 92,0 4,7 213 - 0,0 0 1.027,3
20:47 5,1 3,9 4,7 92,0 4,7 213 - 0,0 0 1.027,3
20:46 5,1 3,9 4,7 92,0 4,7 213 - 0,0 0 1.027,2
20:45 5,1 3,9 4,7 92,0 4,6 213 - 0,0 0 1.027,2
20:44 5,1 3,9 4,7 92,0 4,6 213 - 0,0 0 1.027,2
20:43 5,1 3,9 4,7 92,0 4,6 213 - 0,0 0 1.027,2
20:42 5,1 3,9 4,7 92,0 4,5 213 - 0,0 0 1.027,3
20:41 5,1 3,9 4,7 92,0 4,5 212 - 0,0 0 1.027,2
20:40 5,1 3,9 4,7 92,0 4,6 212 - 0,0 0 1.027,3
20:39 5,1 3,9 4,7 92,0 4,8 211 - 0,0 0 1.027,3
20:38 5,1 3,9 4,7 92,0 5,1 210 - 0,0 0 1.027,3
20:37 5,1 3,9 4,7 92,0 5,3 209 - 0,0 0 1.027,3
20:36 5,1 3,9 4,7 92,0 5,4 209 - 0,0 0 1.027,3
20:35 5,1 3,9 4,7 92,0 5,5 208 - 0,0 0 1.027,3
20:34 5,1 3,9 4,7 92,0 5,4 207 - 0,0 0 1.027,3
20:33 5,1 3,9 4,7 92,0 5,2 207 - 0,0 0 1.027,3
20:32 5,1 3,9 4,7 92,0 5,1 206 - 0,0 0 1.027,4
20:31 5,1 3,9 4,7 92,0 5,1 206 - 0,0 0 1.027,4
20:30 5,1 3,9 4,7 92,0 5,0 206 - 0,0 0 1.027,4
20:29 5,1 3,9 4,7 92,0 4,9 206 - 0,0 0 1.027,4
20:28 5,1 3,9 4,7 92,0 4,9 206 - 0,0 0 1.027,4
20:27 5,1 3,9 4,7 92,0 4,8 205 - 0,0 0 1.027,4
20:26 5,1 3,9 4,7 92,0 4,6 205 - 0,0 0 1.027,5
20:25 5,1 3,9 4,7 92,0 4,4 204 - 0,0 0 1.027,5
20:24 5,1 3,9 4,7 92,0 4,4 204 - 0,0 0 1.027,4
20:23 5,1 3,9 4,7 92,0 4,4 204 - 0,0 0 1.027,5
20:22 5,1 3,9 4,7 92,0 4,6 204 - 0,0 0 1.027,5
20:21 5,2 4,0 4,8 92,0 4,8 204 - 0,0 0 1.027,5
20:20 5,2 4,0 4,8 92,0 5,0 204 - 0,0 0 1.027,6
20:19 5,2 4,0 4,8 92,0 5,1 204 - 0,0 0 1.027,6
20:18 5,2 4,0 4,8 92,0 5,1 205 - 0,0 0 1.027,6
20:17 5,2 4,0 4,8 92,0 4,9 205 - 0,0 0 1.027,6
20:16 5,2 4,0 4,8 92,0 4,7 206 - 0,0 0 1.027,6
20:15 5,2 4,0 4,8 92,0 4,6 207 - 0,0 0 1.027,6
20:14 5,2 4,0 4,8 92,0 4,6 207 - 0,0 0 1.027,6
20:13 5,2 4,0 4,8 92,0 4,8 208 - 0,0 0 1.027,7
20:12 5,2 4,0 4,8 92,0 4,9 209 - 0,0 0 1.027,7
20:11 5,2 4,0 4,8 92,0 5,0 210 9,4 0,0 0 1.027,7
20:10 5,2 4,0 4,8 92,0 5,1 211 - 0,0 0 1.027,8
20:09 5,2 4,0 4,8 92,0 5,0 212 - 0,0 0 1.027,8
20:08 5,2 4,0 4,8 92,0 4,8 213 - 0,0 0 1.027,8
20:07 5,2 4,0 4,8 92,0 4,7 214 - 0,0 0 1.027,9
20:06 5,2 4,0 4,8 92,0 4,6 215 - 0,0 0 1.028,0
20:05 5,2 4,0 4,8 92,0 4,6 215 - 0,0 0 1.028,0
20:04 5,2 4,0 4,8 92,0 4,7 215 - 0,0 0 1.028,0
20:03 5,3 4,1 4,9 92,0 4,7 216 - 0,0 0 1.028,0
20:02 5,3 4,1 4,9 92,0 4,7 216 - 0,0 0 1.028,0
20:01 5,3 4,1 4,9 92,0 4,7 216 - 0,0 0 1.028,0
20:00 5,3 4,1 4,9 92,0 4,6 216 - 0,0 0 1.028,0
 
19:59 5,3 4,0 4,8 91,2 4,6 216 - 0,0 0 1.028,0
19:58 5,3 4,1 4,9 91,9 4,6 216 - 0,0 0 1.028,0
19:57 5,3 3,9 4,8 91,0 4,6 216 - 0,0 0 1.028,1
19:56 5,3 4,0 4,8 91,4 5,5 210 - 0,0 0 1.028,1
19:55 5,3 4,0 4,8 91,3 5,3 211 - 0,0 0 1.028,1
19:54 5,3 3,9 4,8 91,0 5,1 159 - 0,0 0 1.028,1
19:53 5,3 4,1 4,9 91,9 5,1 223 - 0,0 0 1.028,1
19:52 5,3 4,0 4,8 91,1 5,7 186 - 0,0 0 1.028,1
19:51 5,3 3,9 4,8 91,0 4,5 221 - 0,0 0 1.028,2
19:50 5,3 3,9 4,8 91,0 4,8 296 - 0,0 0 1.028,2
19:49 5,3 3,9 4,8 91,0 4,6 198 - 0,0 0 1.028,2
19:48 5,3 3,9 4,8 91,0 6,1 234 - 0,0 0 1.028,2
19:47 5,3 3,9 4,8 91,0 4,6 188 - 0,0 0 1.028,3
19:46 5,3 3,9 4,8 91,0 5,8 207 - 0,0 0 1.028,3
19:45 5,3 3,9 4,8 91,0 4,9 210 - 0,0 0 1.028,3
19:44 5,3 3,9 4,8 91,0 5,7 244 10,3 0,0 0 1.028,3
19:43 5,3 3,9 4,8 91,0 5,6 217 - 0,0 0 1.028,3
19:42 5,3 3,9 4,8 91,0 5,3 230 - 0,0 0 1.028,3